| time (UTC) | temp C | wind direction | speed KPH | gust KPH | rain 1hr cm | rain 24hr cm | rain mn cm | humidity % | barometer mb |
| 20260508214212 | 17 | 240 | 11.3 | 19.3 | 0.00 | 0.00 | 0.00 | 32 | 1006.3 |
| 20260508214028 | 17 | 275 | 11.3 | 20.9 | 0.00 | 0.00 | 0.00 | 32 | 1006.2 |
| 20260508213910 | 17 | 215 | 6.4 | 20.9 | 0.00 | 0.00 | 0.00 | 34 | 1006.3 |
| 20260508213747 | 17 | 252 | 1.6 | 24.1 | 0.00 | 0.00 | 0.00 | 34 | 1006.3 |
| 20260508213625 | 17 | 165 | 6.4 | 24.1 | 0.00 | 0.00 | 0.00 | 34 | 1006.3 |
| 20260508213503 | 17 | 204 | 8.0 | 24.1 | 0.00 | 0.00 | 0.00 | 34 | 1006.3 |
| 20260508213344 | 17 | 280 | 11.3 | 24.1 | 0.00 | 0.00 | 0.00 | 33 | 1006.3 |
| 20260508213222 | 17 | 196 | 12.9 | 24.1 | 0.00 | 0.00 | 0.00 | 33 | 1006.4 |
| 20260508213100 | 17 | 234 | 16.1 | 24.1 | 0.00 | 0.00 | 0.00 | 33 | 1006.4 |
| 20260508212937 | 17 | 264 | 14.5 | 24.1 | 0.00 | 0.00 | 0.00 | 34 | 1006.4 |
| 20260508212819 | 17 | 256 | 14.5 | 24.1 | 0.00 | 0.00 | 0.00 | 33 | 1006.4 |
| 20260508212637 | 17 | 233 | 14.5 | 24.1 | 0.00 | 0.00 | 0.00 | 34 | 1006.4 |
| 20260508212515 | 17 | 250 | 14.5 | 24.1 | 0.00 | 0.00 | 0.00 | 34 | 1006.4 |
| 20260508212353 | 17 | 235 | 11.3 | 20.9 | 0.00 | 0.00 | 0.00 | 33 | 1006.4 |
| 20260508212231 | 17 | 258 | 11.3 | 19.3 | 0.00 | 0.00 | 0.00 | 36 | 1006.5 |
| 20260508212113 | 17 | 278 | 9.7 | 19.3 | 0.00 | 0.00 | 0.00 | 35 | 1006.4 |
| 20260508211951 | 17 | 241 | 11.3 | 19.3 | 0.00 | 0.00 | 0.00 | 34 | 1006.4 |
| 20260508211829 | 17 | 234 | 9.7 | 19.3 | 0.00 | 0.00 | 0.00 | 34 | 1006.4 |
| 20260508211707 | 17 | 263 | 12.9 | 19.3 | 0.00 | 0.00 | 0.00 | 34 | 1006.4 |
| 20260508211548 | 17 | 234 | 12.9 | 19.3 | 0.00 | 0.00 | 0.00 | 34 | 1006.5 |
| 20260508211405 | 17 | 257 | 9.7 | 19.3 | 0.00 | 0.00 | 0.00 | 35 | 1006.5 |
| 20260508211241 | 17 | 180 | 9.7 | 19.3 | 0.00 | 0.00 | 0.00 | 34 | 1006.5 |
| 20260508211119 | 17 | 271 | 9.7 | 19.3 | 0.00 | 0.00 | 0.00 | 35 | 1006.6 |
| 20260508211001 | 17 | 264 | 8.0 | 17.7 | 0.00 | 0.00 | 0.00 | 34 | 1006.5 |
| 20260508210838 | 17 | 211 | 6.4 | 17.7 | 0.00 | 0.00 | 0.00 | 34 | 1006.5 |
| 20260508210716 | 17 | 261 | 8.0 | 17.7 | 0.00 | 0.00 | 0.00 | 33 | 1006.6 |
| 20260508210554 | 17 | 270 | 8.0 | 19.3 | 0.00 | 0.00 | 0.00 | 34 | 1006.6 |
| 20260508210437 | 17 | 245 | 9.7 | 19.3 | 0.00 | 0.00 | 0.00 | 34 | 1006.5 |
| 20260508210318 | 17 | 242 | 9.7 | 19.3 | 0.00 | 0.00 | 0.00 | 34 | 1006.6 |
| 20260508210155 | 17 | 253 | 8.0 | 19.3 | 0.00 | 0.00 | 0.00 | 35 | 1006.6 |
| 20260508210033 | 17 | 175 | 9.7 | 19.3 | 0.00 | 0.00 | 0.00 | 34 | 1006.6 |
| 20260508205850 | 17 | 211 | 11.3 | 19.3 | 0.00 | 0.00 | 0.00 | 35 | 1006.6 |
| 20260508205732 | 17 | 232 | 12.9 | 19.3 | 0.00 | 0.00 | 0.00 | 35 | 1006.6 |
| 20260508205610 | 17 | 252 | 8.0 | 19.3 | 0.00 | 0.00 | 0.00 | 36 | 1006.6 |
| 20260508205448 | 17 | 271 | 6.4 | 14.5 | 0.00 | 0.00 | 0.00 | 35 | 1006.6 |
| 20260508205326 | 17 | 257 | 4.8 | 14.5 | 0.00 | 0.00 | 0.00 | 35 | 1006.6 |
| 20260508205207 | 17 | 271 | 8.0 | 14.5 | 0.00 | 0.00 | 0.00 | 35 | 1006.7 |
| 20260508205045 | 17 | 215 | 8.0 | 14.5 | 0.00 | 0.00 | 0.00 | 36 | 1006.7 |
| 20260508204923 | 17 | 215 | 6.4 | 12.9 | 0.00 | 0.00 | 0.00 | 35 | 1006.8 |
| 20260508204739 | 17 | 219 | 3.2 | 20.9 | 0.00 | 0.00 | 0.00 | 34 | 1006.7 |
| 20260508204606 | 17 | 281 | 3.2 | 20.9 | 0.00 | 0.00 | 0.00 | 34 | 1006.8 |
| 20260508204443 | 17 | 261 | 3.2 | 20.9 | 0.00 | 0.00 | 0.00 | 34 | 1006.8 |
| 20260508204321 | 17 | 239 | 4.8 | 20.9 | 0.00 | 0.00 | 0.00 | 34 | 1006.8 |
| 20260508204159 | 17 | 286 | 9.7 | 20.9 | 0.00 | 0.00 | 0.00 | 33 | 1006.9 |
| 20260508204015 | 17 | 278 | 12.9 | 20.9 | 0.00 | 0.00 | 0.00 | 34 | 1006.9 |
| 20260508203857 | 17 | 205 | 12.9 | 20.9 | 0.00 | 0.00 | 0.00 | 34 | 1006.8 |
| 20260508203713 | 17 | 265 | 12.9 | 20.9 | 0.00 | 0.00 | 0.00 | 34 | 1006.8 |
| 20260508203551 | 17 | 279 | 8.0 | 17.7 | 0.00 | 0.00 | 0.00 | 35 | 1006.8 |
| 20260508203433 | 17 | 265 | 8.0 | 17.7 | 0.00 | 0.00 | 0.00 | 35 | 1006.9 |
| 20260508203315 | 17 | 209 | 8.0 | 17.7 | 0.00 | 0.00 | 0.00 | 36 | 1006.9 |
| 20260508203132 | 17 | 267 | 8.0 | 17.7 | 0.00 | 0.00 | 0.00 | 35 | 1006.9 |
| 20260508202949 | 17 | 221 | 9.7 | 17.7 | 0.00 | 0.00 | 0.00 | 36 | 1006.9 |
| 20260508202829 | 17 | 246 | 9.7 | 17.7 | 0.00 | 0.00 | 0.00 | 36 | 1006.9 |
| 20260508202710 | 17 | 236 | 11.3 | 17.7 | 0.00 | 0.00 | 0.00 | 35 | 1006.9 |
| 20260508202553 | 17 | 238 | 8.0 | 17.7 | 0.00 | 0.00 | 0.00 | 35 | 1007.0 |
| 20260508202431 | 17 | 262 | 11.3 | 20.9 | 0.00 | 0.00 | 0.00 | 35 | 1007.0 |
| 20260508202307 | 17 | 272 | 11.3 | 20.9 | 0.00 | 0.00 | 0.00 | 34 | 1007.0 |
| 20260508202145 | 17 | 307 | 8.0 | 24.1 | 0.00 | 0.00 | 0.00 | 34 | 1007.0 |
| 20260508202026 | 17 | 271 | 9.7 | 24.1 | 0.00 | 0.00 | 0.00 | 35 | 1007.1 |
| 20260508201904 | 17 | 227 | 9.7 | 24.1 | 0.00 | 0.00 | 0.00 | 36 | 1007.1 |
| 20260508201742 | 17 | 222 | 11.3 | 24.1 | 0.00 | 0.00 | 0.00 | 35 | 1007.1 |
| 20260508201558 | 17 | 283 | 16.1 | 24.1 | 0.00 | 0.00 | 0.00 | 34 | 1007.1 |
| 20260508201440 | 17 | 250 | 17.7 | 24.1 | 0.00 | 0.00 | 0.00 | 34 | 1007.1 |
| 20260508201317 | 17 | 273 | 12.9 | 24.1 | 0.00 | 0.00 | 0.00 | 34 | 1007.2 |
| 20260508201155 | 17 | 296 | 14.5 | 24.1 | 0.00 | 0.00 | 0.00 | 33 | 1007.3 |
| 20260508201031 | 17 | 263 | 12.9 | 24.1 | 0.00 | 0.00 | 0.00 | 33 | 1007.2 |
| 20260508200913 | 17 | 249 | 8.0 | 24.1 | 0.00 | 0.00 | 0.00 | 34 | 1007.2 |
| 20260508200734 | 17 | 252 | 12.9 | 24.1 | 0.00 | 0.00 | 0.00 | 33 | 1007.3 |
| 20260508200551 | 17 | 239 | 12.9 | 20.9 | 0.00 | 0.00 | 0.00 | 34 | 1007.3 |
| 20260508200429 | 17 | 271 | 11.3 | 20.9 | 0.00 | 0.00 | 0.00 | 36 | 1007.4 |
| 20260508200307 | 17 | 263 | 8.0 | 20.9 | 0.00 | 0.00 | 0.00 | 35 | 1007.4 |
| 20260508200149 | 17 | 293 | 12.9 | 20.9 | 0.00 | 0.00 | 0.00 | 35 | 1007.4 |
| 20260508200026 | 17 | 253 | 12.9 | 20.9 | 0.00 | 0.00 | 0.00 | 35 | 1007.5 |
| 20260508195905 | 17 | 257 | 8.0 | 22.5 | 0.00 | 0.00 | 0.00 | 36 | 1007.5 |
| 20260508195742 | 17 | 229 | 4.8 | 22.5 | 0.00 | 0.00 | 0.00 | 36 | 1007.5 |
| 20260508195624 | 16 | 216 | 6.4 | 22.5 | 0.00 | 0.00 | 0.00 | 35 | 1007.5 |
| 20260508195502 | 16 | 223 | 9.7 | 22.5 | 0.00 | 0.00 | 0.00 | 35 | 1007.5 |
| 20260508195339 | 17 | 269 | 11.3 | 22.5 | 0.00 | 0.00 | 0.00 | 35 | 1007.6 |
| 20260508195156 | 17 | 254 | 16.1 | 22.5 | 0.00 | 0.00 | 0.00 | 35 | 1007.5 |
| 20260508195037 | 17 | 242 | 14.5 | 27.4 | 0.00 | 0.00 | 0.00 | 36 | 1007.5 |
| 20260508194914 | 17 | 266 | 11.3 | 27.4 | 0.00 | 0.00 | 0.00 | 36 | 1007.5 |
| 20260508194753 | 17 | 309 | 8.0 | 27.4 | 0.00 | 0.00 | 0.00 | 34 | 1007.6 |
| 20260508194634 | 17 | 285 | 9.7 | 27.4 | 0.00 | 0.00 | 0.00 | 35 | 1007.6 |
| 20260508194511 | 17 | 300 | 9.7 | 27.4 | 0.00 | 0.00 | 0.00 | 35 | 1007.7 |
| 20260508194353 | 17 | 241 | 16.1 | 27.4 | 0.00 | 0.00 | 0.00 | 35 | 1007.7 |
| 20260508194209 | 17 | 257 | 16.1 | 27.4 | 0.00 | 0.00 | 0.00 | 35 | 1007.7 |
| 20260508194026 | 17 | 245 | 12.9 | 25.7 | 0.00 | 0.00 | 0.00 | 35 | 1007.7 |
| 20260508193905 | 17 | 263 | 14.5 | 25.7 | 0.00 | 0.00 | 0.00 | 34 | 1007.8 |
| 20260508193746 | 17 | 259 | 17.7 | 25.7 | 0.00 | 0.00 | 0.00 | 35 | 1007.7 |
| 20260508193623 | 17 | 290 | 16.1 | 24.1 | 0.00 | 0.00 | 0.00 | 35 | 1007.7 |
| 20260508193439 | 17 | 247 | 8.0 | 20.9 | 0.00 | 0.00 | 0.00 | 35 | 1007.8 |
| 20260508193317 | 17 | 277 | 8.0 | 20.9 | 0.00 | 0.00 | 0.00 | 35 | 1007.8 |
| 20260508193159 | 17 | 321 | 8.0 | 20.9 | 0.00 | 0.00 | 0.00 | 35 | 1007.8 |
| 20260508193036 | 17 | 269 | 9.7 | 20.9 | 0.00 | 0.00 | 0.00 | 34 | 1007.9 |
| 20260508192914 | 17 | 282 | 9.7 | 20.9 | 0.00 | 0.00 | 0.00 | 35 | 1007.9 |
| 20260508192730 | 17 | 302 | 8.0 | 14.5 | 0.00 | 0.00 | 0.00 | 33 | 1007.9 |
| 20260508192557 | 17 | 310 | 9.7 | 20.9 | 0.00 | 0.00 | 0.00 | 33 | 1007.9 |
| 20260508192435 | 17 | 311 | 8.0 | 20.9 | 0.00 | 0.00 | 0.00 | 33 | 1007.9 |
| 20260508192313 | 17 | 243 | 6.4 | 20.9 | 0.00 | 0.00 | 0.00 | 34 | 1008.0 |
| 20260508192151 | 17 | 210 | 6.4 | 20.9 | 0.00 | 0.00 | 0.00 | 33 | 1008.0 |
| 20260508192029 | 17 | 195 | 8.0 | 20.9 | 0.00 | 0.00 | 0.00 | 32 | 1008.1 |
| 20260508191911 | 17 | 219 | 11.3 | 20.9 | 0.00 | 0.00 | 0.00 | 32 | 1008.1 |
| 20260508191748 | 17 | 214 | 11.3 | 20.9 | 0.00 | 0.00 | 0.00 | 33 | 1008.1 |
| 20260508191625 | 17 | 250 | 4.8 | 20.9 | 0.00 | 0.00 | 0.00 | 33 | 1008.2 |
| 20260508191503 | 17 | 296 | 8.0 | 20.9 | 0.00 | 0.00 | 0.00 | 32 | 1008.1 |
| 20260508191345 | 16 | 194 | 11.3 | 20.9 | 0.00 | 0.00 | 0.00 | 33 | 1008.1 |
| 20260508191222 | 16 | 194 | 9.7 | 19.3 | 0.00 | 0.00 | 0.00 | 33 | 1008.2 |
| 20260508191038 | 16 | 218 | 9.7 | 19.3 | 0.00 | 0.00 | 0.00 | 32 | 1008.2 |
| 20260508190916 | 16 | 259 | 8.0 | 19.3 | 0.00 | 0.00 | 0.00 | 32 | 1008.3 |
| 20260508190736 | 16 | 250 | 9.7 | 19.3 | 0.00 | 0.00 | 0.00 | 33 | 1008.3 |
| 20260508190614 | 16 | 315 | 9.7 | 19.3 | 0.00 | 0.00 | 0.00 | 32 | 1008.3 |
| 20260508190452 | 16 | 236 | 11.3 | 22.5 | 0.00 | 0.00 | 0.00 | 32 | 1008.2 |
| 20260508190334 | 16 | 244 | 8.0 | 22.5 | 0.00 | 0.00 | 0.00 | 33 | 1008.3 |
| 20260508190212 | 16 | 272 | 8.0 | 22.5 | 0.00 | 0.00 | 0.00 | 32 | 1008.3 |
| 20260508190053 | 16 | 243 | 12.9 | 22.5 | 0.00 | 0.00 | 0.00 | 33 | 1008.4 |
| 20260508185931 | 16 | 221 | 12.9 | 22.5 | 0.00 | 0.00 | 0.00 | 32 | 1008.4 |
| 20260508185808 | 16 | 200 | 14.5 | 22.5 | 0.00 | 0.00 | 0.00 | 32 | 1008.4 |
| 20260508185646 | 17 | 262 | 9.7 | 22.5 | 0.00 | 0.00 | 0.00 | 32 | 1008.4 |
| 20260508185527 | 17 | 236 | 8.0 | 22.5 | 0.00 | 0.00 | 0.00 | 31 | 1008.5 |
| 20260508185405 | 16 | 235 | 12.9 | 22.5 | 0.00 | 0.00 | 0.00 | 33 | 1008.5 |
| 20260508185243 | 16 | 231 | 9.7 | 14.5 | 0.00 | 0.00 | 0.00 | 34 | 1008.4 |
| 20260508185124 | 16 | 197 | 6.4 | 16.1 | 0.00 | 0.00 | 0.00 | 35 | 1008.5 |
| 20260508185005 | 16 | 261 | 8.0 | 22.5 | 0.00 | 0.00 | 0.00 | 33 | 1008.5 |
| 20260508184843 | 16 | 278 | 6.4 | 22.5 | 0.00 | 0.00 | 0.00 | 32 | 1008.5 |
| 20260508184720 | 16 | 223 | 9.7 | 22.5 | 0.00 | 0.00 | 0.00 | 32 | 1008.6 |
| 20260508184558 | 16 | 258 | 9.7 | 25.7 | 0.00 | 0.00 | 0.00 | 32 | 1008.7 |
| 20260508184435 | 16 | 236 | 9.7 | 25.7 | 0.00 | 0.00 | 0.00 | 32 | 1008.6 |
| 20260508184256 | 16 | 215 | 14.5 | 25.7 | 0.00 | 0.00 | 0.00 | 33 | 1008.6 |
| 20260508184139 | 16 | 242 | 12.9 | 25.7 | 0.00 | 0.00 | 0.00 | 33 | 1008.6 |
| 20260508184022 | 16 | 233 | 14.5 | 25.7 | 0.00 | 0.00 | 0.00 | 32 | 1008.6 |
| 20260508183900 | 16 | 259 | 16.1 | 25.7 | 0.00 | 0.00 | 0.00 | 33 | 1008.5 |
| 20260508183741 | 16 | 247 | 16.1 | 25.7 | 0.00 | 0.00 | 0.00 | 33 | 1008.5 |
| 20260508183556 | 16 | 224 | 6.4 | 20.9 | 0.00 | 0.00 | 0.00 | 32 | 1008.5 |
| 20260508183421 | 16 | 214 | 9.7 | 20.9 | 0.00 | 0.00 | 0.00 | 32 | 1008.6 |
| 20260508183304 | 16 | 244 | 9.7 | 20.9 | 0.00 | 0.00 | 0.00 | 33 | 1008.7 |
| 20260508183129 | 16 | 264 | 8.0 | 19.3 | 0.00 | 0.00 | 0.00 | 34 | 1008.7 |
| 20260508183011 | 16 | 287 | 11.3 | 19.3 | 0.00 | 0.00 | 0.00 | 33 | 1008.7 |
| 20260508182836 | 16 | 247 | 9.7 | 17.7 | 0.00 | 0.00 | 0.00 | 33 | 1008.7 |
| 20260508182703 | 16 | 263 | 6.4 | 17.7 | 0.00 | 0.00 | 0.00 | 33 | 1008.7 |
| 20260508182544 | 16 | 238 | 8.0 | 17.7 | 0.00 | 0.00 | 0.00 | 33 | 1008.7 |
| 20260508182421 | 16 | 239 | 9.7 | 17.7 | 0.00 | 0.00 | 0.00 | 33 | 1008.8 |
| 20260508182259 | 16 | 216 | 4.8 | 16.1 | 0.00 | 0.00 | 0.00 | 33 | 1008.8 |
| 20260508182126 | 16 | 252 | 6.4 | 19.3 | 0.00 | 0.00 | 0.00 | 34 | 1008.8 |
| 20260508182009 | 16 | 281 | 9.7 | 19.3 | 0.00 | 0.00 | 0.00 | 34 | 1008.9 |
| 20260508181851 | 16 | 252 | 11.3 | 25.7 | 0.00 | 0.00 | 0.00 | 35 | 1008.8 |
| 20260508181733 | 16 | 248 | 9.7 | 25.7 | 0.00 | 0.00 | 0.00 | 36 | 1008.8 |
| 20260508181615 | 16 | 270 | 11.3 | 25.7 | 0.00 | 0.00 | 0.00 | 34 | 1008.8 |
| 20260508181458 | 16 | 284 | 11.3 | 27.4 | 0.00 | 0.00 | 0.00 | 34 | 1008.9 |
| 20260508181341 | 16 | 242 | 12.9 | 27.4 | 0.00 | 0.00 | 0.00 | 34 | 1008.9 |
| 20260508181222 | 16 | 277 | 16.1 | 27.4 | 0.00 | 0.00 | 0.00 | 33 | 1008.8 |
| 20260508181101 | 16 | 271 | 12.9 | 27.4 | 0.00 | 0.00 | 0.00 | 33 | 1008.9 |
| 20260508180922 | 16 | 309 | 14.5 | 27.4 | 0.00 | 0.00 | 0.00 | 33 | 1009.0 |
| 20260508180739 | 16 | 272 | 16.1 | 27.4 | 0.00 | 0.00 | 0.00 | 33 | 1009.0 |
| 20260508180622 | 16 | 269 | 12.9 | 22.5 | 0.00 | 0.00 | 0.00 | 35 | 1008.9 |
| 20260508180501 | 16 | 265 | 6.4 | 17.7 | 0.00 | 0.00 | 0.00 | 35 | 1008.9 |
| 20260508180329 | 16 | 243 | 8.0 | 17.7 | 0.00 | 0.00 | 0.00 | 35 | 1009.0 |
| 20260508180146 | 16 | 265 | 4.8 | 16.1 | 0.00 | 0.00 | 0.00 | 35 | 1009.0 |
| 20260508180029 | 16 | 225 | 6.4 | 16.1 | 0.00 | 0.00 | 0.00 | 35 | 1009.1 |
| 20260508175851 | 16 | 300 | 3.2 | 22.5 | 0.00 | 0.00 | 0.00 | 36 | 1009.1 |
| 20260508175657 | 16 | 180 | 6.4 | 22.5 | 0.00 | 0.00 | 0.00 | 34 | 1009.1 |
| 20260508175534 | 16 | 253 | 8.0 | 22.5 | 0.00 | 0.00 | 0.00 | 33 | 1009.1 |
| 20260508175413 | 16 | 225 | 11.3 | 22.5 | 0.00 | 0.00 | 0.00 | 33 | 1009.1 |
| 20260508175253 | 16 | 227 | 11.3 | 22.5 | 0.00 | 0.00 | 0.00 | 34 | 1009.2 |
| 20260508175135 | 16 | 252 | 11.3 | 22.5 | 0.00 | 0.00 | 0.00 | 34 | 1009.1 |
| 20260508175013 | 16 | 238 | 8.0 | 22.5 | 0.00 | 0.00 | 0.00 | 35 | 1009.2 |
| 20260508174835 | 16 | 290 | 6.4 | 17.7 | 0.00 | 0.00 | 0.00 | 35 | 1009.2 |
| 20260508174713 | 16 | 275 | 8.0 | 17.7 | 0.00 | 0.00 | 0.00 | 35 | 1009.2 |
| 20260508174554 | 16 | 217 | 9.7 | 17.7 | 0.00 | 0.00 | 0.00 | 35 | 1009.3 |
| 20260508174353 | 16 | 249 | 8.0 | 17.7 | 0.00 | 0.00 | 0.00 | 36 | 1009.3 |
| 20260508174231 | 16 | 205 | 8.0 | 17.7 | 0.00 | 0.00 | 0.00 | 36 | 1009.4 |
| 20260508174109 | 16 | 189 | 9.7 | 19.3 | 0.00 | 0.00 | 0.00 | 36 | 1009.4 |
| 20260508173947 | 16 | 219 | 8.0 | 17.7 | 0.00 | 0.00 | 0.00 | 37 | 1009.5 |
| 20260508173829 | 15 | 338 | 6.4 | 19.3 | 0.00 | 0.00 | 0.00 | 36 | 1009.4 |
| 20260508173712 | 15 | 297 | 4.8 | 19.3 | 0.00 | 0.00 | 0.00 | 35 | 1009.4 |
| 20260508173529 | 15 | 283 | 8.0 | 19.3 | 0.00 | 0.00 | 0.00 | 35 | 1009.6 |
| 20260508173407 | 15 | 257 | 4.8 | 19.3 | 0.00 | 0.00 | 0.00 | 34 | 1009.5 |
| 20260508173248 | 15 | 207 | 6.4 | 19.3 | 0.00 | 0.00 | 0.00 | 34 | 1009.6 |
| 20260508173126 | 15 | 251 | 9.7 | 19.3 | 0.00 | 0.00 | 0.00 | 35 | 1009.6 |
| 20260508172948 | 15 | 259 | 8.0 | 19.3 | 0.00 | 0.00 | 0.00 | 35 | 1009.6 |
| 20260508172826 | 15 | 232 | 8.0 | 19.3 | 0.00 | 0.00 | 0.00 | 35 | 1009.7 |
| 20260508172647 | 15 | 263 | 9.7 | 19.3 | 0.00 | 0.00 | 0.00 | 34 | 1009.7 |
| 20260508172529 | 15 | 261 | 9.7 | 19.3 | 0.00 | 0.00 | 0.00 | 34 | 1009.7 |
| 20260508172412 | 15 | 242 | 12.9 | 19.3 | 0.00 | 0.00 | 0.00 | 35 | 1009.8 |
| 20260508172229 | 15 | 262 | 12.9 | 19.3 | 0.00 | 0.00 | 0.00 | 36 | 1009.8 |
| 20260508172111 | 15 | 235 | 9.7 | 17.7 | 0.00 | 0.00 | 0.00 | 35 | 1009.8 |
| 20260508171953 | 15 | 265 | 1.6 | 16.1 | 0.00 | 0.00 | 0.00 | 34 | 1009.8 |
| 20260508171811 | 15 | 291 | 3.2 | 19.3 | 0.00 | 0.00 | 0.00 | 34 | 1009.9 |
| 20260508171654 | 15 | 288 | 1.6 | 19.3 | 0.00 | 0.00 | 0.00 | 35 | 1009.9 |
| 20260508171537 | 15 | 276 | 1.6 | 19.3 | 0.00 | 0.00 | 0.00 | 34 | 1009.9 |
| 20260508171343 | 15 | 314 | 4.8 | 19.3 | 0.00 | 0.00 | 0.00 | 33 | 1009.9 |
| 20260508171222 | 15 | 304 | 9.7 | 19.3 | 0.00 | 0.00 | 0.00 | 33 | 1009.9 |
| 20260508171104 | 15 | 261 | 12.9 | 19.3 | 0.00 | 0.00 | 0.00 | 33 | 1009.9 |
| 20260508170928 | 15 | 250 | 11.3 | 17.7 | 0.00 | 0.00 | 0.00 | 34 | 1009.8 |
| 20260508170750 | 15 | 318 | 6.4 | 16.1 | 0.00 | 0.00 | 0.00 | 34 | 1009.9 |
| 20260508170630 | 15 | 257 | 4.8 | 16.1 | 0.00 | 0.00 | 0.00 | 35 | 1009.9 |
| 20260508170447 | 15 | 254 | 8.0 | 16.1 | 0.00 | 0.00 | 0.00 | 34 | 1009.9 |
| 20260508170330 | 15 | 265 | 9.7 | 16.1 | 0.00 | 0.00 | 0.00 | 34 | 1009.9 |
| 20260508170213 | 15 | 240 | 9.7 | 16.1 | 0.00 | 0.00 | 0.00 | 35 | 1010.0 |
| 20260508170055 | 15 | 232 | 3.2 | 16.1 | 0.00 | 0.00 | 0.00 | 37 | 1010.0 |
| 20260508165938 | 15 | 235 | 1.6 | 17.7 | 0.00 | 0.00 | 0.00 | 38 | 1010.1 |
| 20260508165820 | 15 | 221 | 1.6 | 20.9 | 0.00 | 0.00 | 0.00 | 38 | 1010.0 |
| 20260508165646 | 15 | 90 | 1.6 | 20.9 | 0.00 | 0.00 | 0.00 | 39 | 1010.1 |
| 20260508165507 | 15 | 252 | 8.0 | 20.9 | 0.00 | 0.00 | 0.00 | 38 | 1010.2 |
| 20260508165346 | 15 | 271 | 8.0 | 20.9 | 0.00 | 0.00 | 0.00 | 38 | 1010.2 |
| 20260508165229 | 15 | 254 | 8.0 | 20.9 | 0.00 | 0.00 | 0.00 | 38 | 1010.2 |
| 20260508165057 | 14 | 217 | 11.3 | 20.9 | 0.00 | 0.00 | 0.00 | 37 | 1010.2 |
| 20260508164917 | 14 | 225 | 8.0 | 19.3 | 0.00 | 0.00 | 0.00 | 38 | 1010.2 |
| 20260508164800 | 14 | 315 | 4.8 | 19.3 | 0.00 | 0.00 | 0.00 | 37 | 1010.2 |
| 20260508164637 | 14 | 18 | 3.2 | 19.3 | 0.00 | 0.00 | 0.00 | 36 | 1010.2 |
| 20260508164519 | 14 | 270 | 11.3 | 19.3 | 0.00 | 0.00 | 0.00 | 36 | 1010.4 |
| 20260508164339 | 15 | 269 | 12.9 | 19.3 | 0.00 | 0.00 | 0.00 | 36 | 1010.4 |
| 20260508164155 | 15 | 272 | 8.0 | 16.1 | 0.00 | 0.00 | 0.00 | 38 | 1010.4 |
| 20260508164033 | 15 | 183 | 8.0 | 19.3 | 0.00 | 0.00 | 0.00 | 37 | 1010.2 |
| 20260508163909 | 14 | 263 | 9.7 | 19.3 | 0.00 | 0.00 | 0.00 | 39 | 1010.3 |
| 20260508163729 | 14 | 255 | 8.0 | 19.3 | 0.00 | 0.00 | 0.00 | 39 | 1010.4 |
| 20260508163612 | 14 | 229 | 6.4 | 19.3 | 0.00 | 0.00 | 0.00 | 38 | 1010.4 |
| 20260508163433 | 14 | 228 | 8.0 | 19.3 | 0.00 | 0.00 | 0.00 | 37 | 1010.4 |
| 20260508163311 | 14 | 270 | 11.3 | 19.3 | 0.00 | 0.00 | 0.00 | 38 | 1010.4 |
| 20260508163152 | 14 | 223 | 9.7 | 17.7 | 0.00 | 0.00 | 0.00 | 39 | 1010.4 |
| 20260508163029 | 14 | 309 | 8.0 | 17.7 | 0.00 | 0.00 | 0.00 | 39 | 1010.4 |
| 20260508162906 | 14 | 245 | 8.0 | 16.1 | 0.00 | 0.00 | 0.00 | 38 | 1010.4 |
| 20260508162744 | 14 | 275 | 9.7 | 16.1 | 0.00 | 0.00 | 0.00 | 38 | 1010.4 |
| 20260508162547 | 14 | 246 | 6.4 | 14.5 | 0.00 | 0.00 | 0.00 | 40 | 1010.5 |
| 20260508162424 | 14 | 240 | 4.8 | 11.3 | 0.00 | 0.00 | 0.00 | 42 | 1010.4 |
| 20260508162306 | 14 | 191 | 6.4 | 11.3 | 0.00 | 0.00 | 0.00 | 41 | 1010.4 |
| 20260508162145 | 14 | 169 | 3.2 | 11.3 | 0.00 | 0.00 | 0.00 | 41 | 1010.4 |
| 20260508162022 | 14 | 223 | 3.2 | 11.3 | 0.00 | 0.00 | 0.00 | 41 | 1010.5 |
| 20260508161902 | 14 | 211 | 3.2 | 11.3 | 0.00 | 0.00 | 0.00 | 41 | 1010.5 |
| 20260508161740 | 14 | 143 | 1.6 | 16.1 | 0.00 | 0.00 | 0.00 | 41 | 1010.5 |
| 20260508161617 | 14 | 208 | 4.8 | 16.1 | 0.00 | 0.00 | 0.00 | 41 | 1010.6 |
| 20260508161459 | 14 | 223 | 8.0 | 19.3 | 0.00 | 0.00 | 0.00 | 41 | 1010.5 |
| 20260508161320 | 13 | 257 | 6.4 | 19.3 | 0.00 | 0.00 | 0.00 | 42 | 1010.5 |
| 20260508161158 | 13 | 246 | 4.8 | 19.3 | 0.00 | 0.00 | 0.00 | 43 | 1010.5 |
| 20260508161035 | 13 | 296 | 11.3 | 19.3 | 0.00 | 0.00 | 0.00 | 41 | 1010.6 |
| 20260508160852 | 13 | 258 | 11.3 | 19.3 | 0.00 | 0.00 | 0.00 | 39 | 1010.6 |
| 20260508160734 | 13 | 243 | 9.7 | 19.3 | 0.00 | 0.00 | 0.00 | 41 | 1010.6 |
| 20260508160551 | 13 | 254 | 6.4 | 17.7 | 0.00 | 0.00 | 0.00 | 41 | 1010.6 |
| 20260508160408 | 13 | 242 | 1.6 | 17.7 | 0.00 | 0.00 | 0.00 | 41 | 1010.7 |
| 20260508160246 | 13 | 217 | 3.2 | 17.7 | 0.00 | 0.00 | 0.00 | 42 | 1010.8 |
| 20260508155945 | 13 | 248 | 8.0 | 17.7 | 0.00 | 0.00 | 0.00 | 42 | 1010.8 |
| 20260508155822 | 13 | 308 | 4.8 | 16.1 | 0.00 | 0.00 | 0.00 | 43 | 1010.8 |
| 20260508155659 | 13 | 240 | 8.0 | 16.1 | 0.00 | 0.00 | 0.00 | 42 | 1010.9 |
| 20260508155536 | 13 | 238 | 8.0 | 16.1 | 0.00 | 0.00 | 0.00 | 43 | 1010.9 |
| 20260508155418 | 13 | 238 | 6.4 | 16.1 | 0.00 | 0.00 | 0.00 | 43 | 1010.9 |
| 20260508155235 | 13 | 180 | 8.0 | 16.1 | 0.00 | 0.00 | 0.00 | 44 | 1010.9 |
| 20260508155051 | 13 | 232 | 6.4 | 16.1 | 0.00 | 0.00 | 0.00 | 44 | 1010.9 |
| 20260508154929 | 13 | 175 | 6.4 | 20.9 | 0.00 | 0.00 | 0.00 | 43 | 1010.9 |
| 20260508154755 | 13 | 245 | 6.4 | 20.9 | 0.00 | 0.00 | 0.00 | 43 | 1010.9 |
| 20260508154633 | 13 | 199 | 8.0 | 20.9 | 0.00 | 0.00 | 0.00 | 44 | 1010.8 |
| 20260508154509 | 13 | 221 | 6.4 | 20.9 | 0.00 | 0.00 | 0.00 | 44 | 1010.9 |
| 20260508154327 | 13 | 252 | 8.0 | 20.9 | 0.00 | 0.00 | 0.00 | 43 | 1010.9 |
| 20260508154208 | 13 | 246 | 8.0 | 20.9 | 0.00 | 0.00 | 0.00 | 43 | 1010.8 |
| 20260508154046 | 13 | 298 | 6.4 | 19.3 | 0.00 | 0.00 | 0.00 | 43 | 1010.9 |
| 20260508153924 | 13 | 300 | 3.2 | 19.3 | 0.00 | 0.00 | 0.00 | 43 | 1010.9 |
| 20260508153801 | 12 | 35 | 9.7 | 19.3 | 0.00 | 0.00 | 0.00 | 43 | 1010.8 |
| 20260508153641 | 12 | 269 | 12.9 | 19.3 | 0.00 | 0.00 | 0.00 | 43 | 1010.9 |
| 20260508153522 | 12 | 312 | 12.9 | 19.3 | 0.00 | 0.00 | 0.00 | 44 | 1010.9 |
| 20260508153338 | 13 | 306 | 11.3 | 19.3 | 0.00 | 0.00 | 0.00 | 44 | 1010.9 |
| 20260508153155 | 13 | 275 | 14.5 | 19.3 | 0.00 | 0.00 | 0.00 | 43 | 1010.9 |
| 20260508153033 | 13 | 263 | 9.7 | 17.7 | 0.00 | 0.00 | 0.00 | 43 | 1010.9 |
| 20260508152914 | 13 | 312 | 6.4 | 17.7 | 0.00 | 0.00 | 0.00 | 44 | 1011.0 |
| 20260508152752 | 13 | 277 | 11.3 | 17.7 | 0.00 | 0.00 | 0.00 | 43 | 1011.0 |
| 20260508152608 | 13 | 249 | 6.4 | 17.7 | 0.00 | 0.00 | 0.00 | 43 | 1011.0 |
| 20260508152450 | 13 | 281 | 3.2 | 14.5 | 0.00 | 0.00 | 0.00 | 45 | 1011.0 |
| 20260508152333 | 13 | 221 | 1.6 | 14.5 | 0.00 | 0.00 | 0.00 | 45 | 1011.0 |
| 20260508152149 | 13 | 248 | 3.2 | 16.1 | 0.00 | 0.00 | 0.00 | 44 | 1011.0 |
| 20260508152006 | 13 | 242 | 8.0 | 16.1 | 0.00 | 0.00 | 0.00 | 44 | 1011.0 |
| 20260508151843 | 13 | 262 | 8.0 | 16.1 | 0.00 | 0.00 | 0.00 | 45 | 1011.0 |
| 20260508151700 | 13 | 169 | 8.0 | 16.1 | 0.00 | 0.00 | 0.00 | 45 | 1011.0 |
| 20260508151542 | 13 | 207 | 4.8 | 16.1 | 0.00 | 0.00 | 0.00 | 45 | 1011.0 |
| 20260508151420 | 13 | 203 | 3.2 | 14.5 | 0.00 | 0.00 | 0.00 | 46 | 1011.0 |
| 20260508151258 | 12 | 192 | 3.2 | 14.5 | 0.00 | 0.00 | 0.00 | 46 | 1011.0 |
| 20260508151135 | 12 | 243 | 4.8 | 14.5 | 0.00 | 0.00 | 0.00 | 48 | 1011.0 |
| 20260508150955 | 12 | 130 | 4.8 | 14.5 | 0.00 | 0.00 | 0.00 | 48 | 1011.0 |
| 20260508150812 | 12 | 133 | 8.0 | 14.5 | 0.00 | 0.00 | 0.00 | 48 | 1011.0 |
| 20260508150630 | 12 | 234 | 6.4 | 14.5 | 0.00 | 0.00 | 0.00 | 49 | 1011.0 |
| 20260508150507 | 12 | 194 | 6.4 | 12.9 | 0.00 | 0.00 | 0.00 | 49 | 1011.0 |
| 20260508150349 | 12 | 274 | 4.8 | 12.9 | 0.00 | 0.00 | 0.00 | 49 | 1011.0 |
| 20260508150232 | 12 | 323 | 4.8 | 12.9 | 0.00 | 0.00 | 0.00 | 51 | 1011.1 |
| 20260508150109 | 12 | 297 | 8.0 | 12.9 | 0.00 | 0.00 | 0.00 | 50 | 1011.0 |
| 20260508145930 | 12 | 303 | 3.2 | 12.9 | 0.00 | 0.00 | 0.00 | 50 | 1011.1 |
| 20260508145807 | 12 | 348 | 6.4 | 12.9 | 0.00 | 0.00 | 0.00 | 49 | 1011.1 |
| 20260508145649 | 12 | 291 | 8.0 | 12.9 | 0.00 | 0.00 | 0.00 | 49 | 1011.1 |
| 20260508145527 | 12 | 290 | 4.8 | 6.4 | 0.00 | 0.00 | 0.00 | 50 | 1011.1 |
| 20260508145405 | 12 | 291 | 1.6 | 6.4 | 0.00 | 0.00 | 0.00 | 50 | 1011.1 |
| 20260508145243 | 12 | 87 | 1.6 | 8.0 | 0.00 | 0.00 | 0.00 | 50 | 1011.1 |
| 20260508145124 | 12 | 80 | 1.6 | 8.0 | 0.00 | 0.00 | 0.00 | 50 | 1011.1 |
| 20260508145002 | 12 | 63 | 0.0 | 8.0 | 0.00 | 0.00 | 0.00 | 51 | 1011.2 |
| 20260508144840 | 12 | 53 | 1.6 | 9.7 | 0.00 | 0.00 | 0.00 | 50 | 1011.1 |
| 20260508144700 | 12 | 360 | 1.6 | 9.7 | 0.00 | 0.00 | 0.00 | 51 | 1011.2 |
| 20260508144542 | 12 | 236 | 4.8 | 9.7 | 0.00 | 0.00 | 0.00 | 51 | 1011.2 |
| 20260508144400 | 12 | 185 | 4.8 | 9.7 | 0.00 | 0.00 | 0.00 | 51 | 1011.2 |
| 20260508144242 | 12 | 170 | 6.4 | 9.7 | 0.00 | 0.00 | 0.00 | 51 | 1011.2 |
| 20260508144039 | 12 | 144 | 6.4 | 9.7 | 0.00 | 0.00 | 0.00 | 50 | 1011.1 |
| 20260508143918 | 12 | 149 | 3.2 | 8.0 | 0.00 | 0.00 | 0.00 | 50 | 1011.2 |
| 20260508143739 | 12 | 180 | 1.6 | 6.4 | 0.00 | 0.00 | 0.00 | 50 | 1011.2 |
| 20260508143617 | 12 | 198 | 1.6 | 6.4 | 0.00 | 0.00 | 0.00 | 50 | 1011.2 |
| 20260508143456 | 12 | 204 | 1.6 | 8.0 | 0.00 | 0.00 | 0.00 | 51 | 1011.2 |
| 20260508143339 | 12 | 205 | 1.6 | 8.0 | 0.00 | 0.00 | 0.00 | 51 | 1011.2 |
| 20260508143206 | 12 | 215 | 1.6 | 8.0 | 0.00 | 0.00 | 0.00 | 51 | 1011.2 |
| 20260508143047 | 12 | 169 | 1.6 | 8.0 | 0.00 | 0.00 | 0.00 | 51 | 1011.2 |
| 20260508142924 | 11 | 166 | 3.2 | 8.0 | 0.00 | 0.00 | 0.00 | 50 | 1011.3 |
| 20260508142807 | 11 | 192 | 4.8 | 8.0 | 0.00 | 0.00 | 0.00 | 50 | 1011.3 |
| 20260508142633 | 11 | 211 | 4.8 | 8.0 | 0.00 | 0.00 | 0.00 | 52 | 1011.3 |
| 20260508142512 | 11 | 180 | 3.2 | 6.4 | 0.00 | 0.00 | 0.00 | 52 | 1011.3 |
| 20260508142352 | 11 | 84 | 1.6 | 4.8 | 0.00 | 0.00 | 0.00 | 53 | 1011.4 |
| 20260508142212 | 11 | 49 | 1.6 | 6.4 | 0.00 | 0.00 | 0.00 | 52 | 1011.4 |
| 20260508142040 | 11 | 28 | 3.2 | 6.4 | 0.00 | 0.00 | 0.00 | 52 | 1011.4 |
| 20260508141905 | 11 | 43 | 1.6 | 6.4 | 0.00 | 0.00 | 0.00 | 53 | 1011.4 |
| 20260508141744 | 11 | 87 | 1.6 | 6.4 | 0.00 | 0.00 | 0.00 | 53 | 1011.4 |
| 20260508141627 | 11 | 61 | 1.6 | 6.4 | 0.00 | 0.00 | 0.00 | 52 | 1011.4 |
| 20260508141448 | 11 | 59 | 3.2 | 6.4 | 0.00 | 0.00 | 0.00 | 52 | 1011.4 |
| 20260508141326 | 11 | 75 | 4.8 | 6.4 | 0.00 | 0.00 | 0.00 | 52 | 1011.4 |
| 20260508141207 | 11 | 67 | 3.2 | 6.4 | 0.00 | 0.00 | 0.00 | 52 | 1011.4 |
| 20260508141048 | 11 | 46 | 1.6 | 4.8 | 0.00 | 0.00 | 0.00 | 52 | 1011.4 |
| 20260508140915 | 11 | 46 | 3.2 | 4.8 | 0.00 | 0.00 | 0.00 | 51 | 1011.5 |
| 20260508140732 | 11 | 237 | 0.0 | 3.2 | 0.00 | 0.00 | 0.00 | 52 | 1011.5 |
| 20260508140615 | 11 | 279 | 0.0 | 3.2 | 0.00 | 0.00 | 0.00 | 52 | 1011.6 |
| 20260508140436 | 11 | 279 | 0.0 | 3.2 | 0.00 | 0.00 | 0.00 | 53 | 1011.5 |
| 20260508140236 | 11 | 275 | 0.0 | 3.2 | 0.00 | 0.00 | 0.00 | 54 | 1011.6 |
| 20260508140118 | 11 | 275 | 1.6 | 4.8 | 0.00 | 0.00 | 0.00 | 55 | 1011.6 |
| 20260508140000 | 11 | 276 | 0.0 | 4.8 | 0.00 | 0.00 | 0.00 | 55 | 1011.6 |
| 20260508135818 | 11 | 250 | 0.0 | 6.4 | 0.00 | 0.00 | 0.00 | 55 | 1011.6 |
| 20260508135701 | 11 | 269 | 1.6 | 6.4 | 0.00 | 0.00 | 0.00 | 56 | 1011.6 |
| 20260508135540 | 11 | 269 | 0.0 | 6.4 | 0.00 | 0.00 | 0.00 | 56 | 1011.6 |
| 20260508135359 | 11 | 269 | 1.6 | 6.4 | 0.00 | 0.00 | 0.00 | 56 | 1011.6 |
| 20260508135237 | 11 | 270 | 3.2 | 6.4 | 0.00 | 0.00 | 0.00 | 57 | 1011.6 |
| 20260508135118 | 11 | 266 | 3.2 | 6.4 | 0.00 | 0.00 | 0.00 | 59 | 1011.7 |
| 20260508134939 | 11 | 204 | 0.0 | 4.8 | 0.00 | 0.00 | 0.00 | 59 | 1011.7 |
| 20260508134821 | 11 | 189 | 1.6 | 6.4 | 0.00 | 0.00 | 0.00 | 60 | 1011.7 |
| 20260508134659 | 11 | 217 | 1.6 | 6.4 | 0.00 | 0.00 | 0.00 | 60 | 1011.6 |
| 20260508134542 | 11 | 269 | 1.6 | 6.4 | 0.00 | 0.00 | 0.00 | 60 | 1011.6 |
| 20260508134423 | 11 | 229 | 1.6 | 6.4 | 0.00 | 0.00 | 0.00 | 61 | 1011.6 |
| 20260508134302 | 11 | 227 | 3.2 | 6.4 | 0.00 | 0.00 | 0.00 | 62 | 1011.7 |
| 20260508134145 | 11 | 208 | 3.2 | 6.4 | 0.00 | 0.00 | 0.00 | 62 | 1011.7 |
| 20260508134027 | 11 | 208 | 3.2 | 6.4 | 0.00 | 0.00 | 0.00 | 63 | 1011.7 |
| 20260508133855 | 11 | 248 | 3.2 | 4.8 | 0.00 | 0.00 | 0.00 | 64 | 1011.7 |
| 20260508133738 | 11 | 228 | 1.6 | 4.8 | 0.00 | 0.00 | 0.00 | 65 | 1011.7 |
| 20260508133618 | 11 | 254 | 0.0 | 4.8 | 0.00 | 0.00 | 0.00 | 66 | 1011.7 |
| 20260508133501 | 10 | 205 | 0.0 | 4.8 | 0.00 | 0.00 | 0.00 | 66 | 1011.8 |
| 20260508133308 | 10 | 207 | 0.0 | 4.8 | 0.00 | 0.00 | 0.00 | 66 | 1011.8 |
| 20260508133128 | 10 | 199 | 1.6 | 4.8 | 0.00 | 0.00 | 0.00 | 67 | 1011.7 |
| 20260508132953 | 10 | 164 | 0.0 | 3.2 | 0.00 | 0.00 | 0.00 | 67 | 1011.7 |
| 20260508132835 | 10 | 165 | 0.0 | 4.8 | 0.00 | 0.00 | 0.00 | 68 | 1011.8 |
| 20260508132657 | 10 | 164 | 0.0 | 6.4 | 0.00 | 0.00 | 0.00 | 69 | 1011.7 |
| 20260508132537 | 10 | 164 | 1.6 | 6.4 | 0.00 | 0.00 | 0.00 | 69 | 1011.7 |
| 20260508132416 | 10 | 207 | 0.0 | 6.4 | 0.00 | 0.00 | 0.00 | 70 | 1011.8 |
| 20260508132254 | 10 | 209 | 0.0 | 6.4 | 0.00 | 0.00 | 0.00 | 70 | 1011.8 |
| 20260508132122 | 10 | 208 | 1.6 | 6.4 | 0.00 | 0.00 | 0.00 | 71 | 1011.8 |
| 20260508132000 | 10 | 209 | 3.2 | 6.4 | 0.00 | 0.00 | 0.00 | 71 | 1011.8 |
| 20260508131843 | 10 | 209 | 3.2 | 6.4 | 0.00 | 0.00 | 0.00 | 72 | 1011.7 |
| 20260508131722 | 10 | 140 | 1.6 | 6.4 | 0.00 | 0.00 | 0.00 | 72 | 1011.7 |
| 20260508131526 | 10 | 173 | 3.2 | 6.4 | 0.00 | 0.00 | 0.00 | 72 | 1011.7 |
| 20260508131405 | 10 | 165 | 1.6 | 6.4 | 0.00 | 0.00 | 0.00 | 73 | 1011.8 |
| 20260508131224 | 10 | 200 | 0.0 | 4.8 | 0.00 | 0.00 | 0.00 | 73 | 1011.8 |
| 20260508131049 | 10 | 190 | 1.6 | 4.8 | 0.00 | 0.00 | 0.00 | 74 | 1011.7 |
| 20260508130911 | 10 | 180 | 1.6 | 4.8 | 0.00 | 0.00 | 0.00 | 74 | 1011.7 |
| 20260508130749 | 10 | 180 | 1.6 | 4.8 | 0.00 | 0.00 | 0.00 | 75 | 1011.7 |
| 20260508130632 | 10 | 211 | 1.6 | 4.8 | 0.00 | 0.00 | 0.00 | 76 | 1011.7 |
| 20260508130515 | 9 | 194 | 1.6 | 4.8 | 0.00 | 0.00 | 0.00 | 76 | 1011.7 |
| 20260508130339 | 9 | 214 | 1.6 | 4.8 | 0.00 | 0.00 | 0.00 | 76 | 1011.7 |
| 20260508130219 | 9 | 174 | 1.6 | 4.8 | 0.00 | 0.00 | 0.00 | 77 | 1011.7 |
| 20260508125945 | 9 | 205 | 0.0 | 4.8 | 0.00 | 0.00 | 0.00 | 77 | 1011.7 |
| 20260508125828 | 9 | 204 | 1.6 | 4.8 | 0.00 | 0.00 | 0.00 | 78 | 1011.8 |
| 20260508125649 | 9 | 204 | 3.2 | 4.8 | 0.00 | 0.00 | 0.00 | 78 | 1011.7 |
| 20260508125531 | 9 | 237 | 0.0 | 4.8 | 0.00 | 0.00 | 0.00 | 78 | 1011.7 |
| 20260508125410 | 9 | 206 | 1.6 | 4.8 | 0.00 | 0.00 | 0.00 | 78 | 1011.7 |
| 20260508125214 | 9 | 221 | 1.6 | 4.8 | 0.00 | 0.00 | 0.00 | 78 | 1011.7 |
| 20260508125052 | 9 | 217 | 1.6 | 3.2 | 0.00 | 0.00 | 0.00 | 79 | 1011.7 |
| 20260508124917 | 9 | 213 | 1.6 | 3.2 | 0.00 | 0.00 | 0.00 | 79 | 1011.7 |
| 20260508124754 | 8 | 213 | 0.0 | 3.2 | 0.00 | 0.00 | 0.00 | 80 | 1011.7 |
| 20260508124636 | 8 | 182 | 0.0 | 1.6 | 0.00 | 0.00 | 0.00 | 80 | 1011.7 |
| 20260508124517 | 8 | 182 | 0.0 | 1.6 | 0.00 | 0.00 | 0.00 | 80 | 1011.7 |
| 20260508124355 | 8 | 182 | 0.0 | 1.6 | 0.00 | 0.00 | 0.00 | 80 | 1011.7 |
| 20260508124236 | 8 | 182 | 0.0 | 1.6 | 0.00 | 0.00 | 0.00 | 80 | 1011.7 |
| 20260508124118 | 8 | 182 | 0.0 | 1.6 | 0.00 | 0.00 | 0.00 | 80 | 1011.7 |
| 20260508123959 | 8 | 182 | 0.0 | 1.6 | 0.00 | 0.00 | 0.00 | 80 | 1011.5 |
| 20260508123837 | 8 | 182 | 0.0 | 1.6 | 0.00 | 0.00 | 0.00 | 80 | 1011.6 |
| 20260508123715 | 8 | 182 | 0.0 | 1.6 | 0.00 | 0.00 | 0.00 | 80 | 1011.6 |
| 20260508123537 | 8 | 182 | 0.0 | 1.6 | 0.00 | 0.00 | 0.00 | 81 | 1011.6 |
| 20260508123402 | 8 | 186 | 0.0 | 1.6 | 0.00 | 0.00 | 0.00 | 80 | 1011.6 |
| 20260508123219 | 7 | 186 | 0.0 | 1.6 | 0.00 | 0.00 | 0.00 | 81 | 1011.5 |
| 20260508123057 | 7 | 186 | 0.0 | 1.6 | 0.00 | 0.00 | 0.00 | 81 | 1011.6 |
| 20260508122935 | 7 | 186 | 0.0 | 1.6 | 0.00 | 0.00 | 0.00 | 81 | 1011.5 |
| 20260508122816 | 7 | 186 | 0.0 | 1.6 | 0.00 | 0.00 | 0.00 | 81 | 1011.5 |
| 20260508122654 | 7 | 186 | 0.0 | 1.6 | 0.00 | 0.00 | 0.00 | 81 | 1011.4 |
| 20260508122537 | 7 | 186 | 0.0 | 1.6 | 0.00 | 0.00 | 0.00 | 81 | 1011.4 |
| 20260508122414 | 7 | 186 | 0.0 | 1.6 | 0.00 | 0.00 | 0.00 | 81 | 1011.4 |
| 20260508122256 | 7 | 186 | 0.0 | 1.6 | 0.00 | 0.00 | 0.00 | 81 | 1011.4 |
| 20260508122134 | 7 | 186 | 0.0 | 1.6 | 0.00 | 0.00 | 0.00 | 81 | 1011.4 |
| 20260508122012 | 7 | 186 | 0.0 | 1.6 | 0.00 | 0.00 | 0.00 | 81 | 1011.4 |
| 20260508121850 | 7 | 186 | 0.0 | 1.6 | 0.00 | 0.00 | 0.00 | 81 | 1011.4 |
| 20260508121707 | 7 | 186 | 0.0 | 1.6 | 0.00 | 0.00 | 0.00 | 81 | 1011.4 |
| 20260508121527 | 7 | 186 | 0.0 | 1.6 | 0.00 | 0.00 | 0.00 | 81 | 1011.3 |
| 20260508121344 | 7 | 186 | 0.0 | 1.6 | 0.00 | 0.00 | 0.00 | 81 | 1011.3 |
| 20260508121201 | 7 | 186 | 0.0 | 0.0 | 0.00 | 0.00 | 0.00 | 81 | 1011.3 |
| 20260508121039 | 7 | 186 | 0.0 | 1.6 | 0.00 | 0.00 | 0.00 | 81 | 1011.3 |
| 20260508120921 | 7 | 186 | 0.0 | 1.6 | 0.00 | 0.00 | 0.00 | 81 | 1011.3 |
| 20260508120802 | 6 | 186 | 0.0 | 1.6 | 0.00 | 0.00 | 0.00 | 81 | 1011.3 |
| 20260508120640 | 6 | 186 | 0.0 | 1.6 | 0.00 | 0.00 | 0.00 | 81 | 1011.3 |
| 20260508120518 | 6 | 186 | 0.0 | 1.6 | 0.00 | 0.00 | 0.00 | 81 | 1011.3 |
| 20260508120400 | 6 | 186 | 0.0 | 1.6 | 0.00 | 0.00 | 0.00 | 81 | 1011.3 |
| 20260508120237 | 6 | 186 | 0.0 | 1.6 | 0.00 | 0.00 | 0.00 | 81 | 1011.3 |
| 20260508120115 | 6 | 186 | 0.0 | 0.0 | 0.00 | 0.00 | 0.00 | 81 | 1011.3 |
| 20260508115953 | 6 | 186 | 0.0 | 0.0 | 0.00 | 0.00 | 0.00 | 81 | 1011.3 |
| 20260508115831 | 6 | 186 | 0.0 | 0.0 | 0.00 | 0.00 | 0.00 | 81 | 1011.3 |
| 20260508115712 | 6 | 186 | 0.0 | 0.0 | 0.00 | 0.00 | 0.00 | 81 | 1011.3 |
| 20260508115550 | 6 | 186 | 0.0 | 0.0 | 0.00 | 0.00 | 0.00 | 81 | 1011.3 |
| 20260508115428 | 6 | 186 | 0.0 | 0.0 | 0.00 | 0.00 | 0.00 | 81 | 1011.3 |
| 20260508115306 | 5 | 186 | 0.0 | 0.0 | 0.00 | 0.00 | 0.00 | 81 | 1011.3 |
| 20260508115148 | 5 | 186 | 0.0 | 0.0 | 0.00 | 0.00 | 0.00 | 81 | 1011.3 |
| 20260508115025 | 5 | 186 | 0.0 | 0.0 | 0.00 | 0.00 | 0.00 | 81 | 1011.3 |
| 20260508114902 | 5 | 186 | 0.0 | 0.0 | 0.00 | 0.00 | 0.00 | 81 | 1011.3 |
| 20260508114745 | 5 | 186 | 0.0 | 0.0 | 0.00 | 0.00 | 0.00 | 81 | 1011.3 |
| 20260508114626 | 5 | 186 | 0.0 | 0.0 | 0.00 | 0.00 | 0.00 | 81 | 1011.2 |
| 20260508114502 | 5 | 186 | 0.0 | 0.0 | 0.00 | 0.00 | 0.00 | 81 | 1011.2 |
| 20260508114318 | 5 | 186 | 0.0 | 0.0 | 0.00 | 0.00 | 0.00 | 81 | 1011.2 |
| 20260508114156 | 5 | 186 | 0.0 | 1.6 | 0.00 | 0.00 | 0.00 | 81 | 1011.2 |
| 20260508114012 | 5 | 186 | 0.0 | 1.6 | 0.00 | 0.00 | 0.00 | 81 | 1011.2 |
| 20260508113854 | 5 | 186 | 0.0 | 1.6 | 0.00 | 0.00 | 0.00 | 81 | 1011.2 |
| 20260508113731 | 5 | 186 | 0.0 | 1.6 | 0.00 | 0.00 | 0.00 | 81 | 1011.1 |
| 20260508113548 | 4 | 186 | 0.0 | 1.6 | 0.00 | 0.00 | 0.00 | 81 | 1011.1 |
| 20260508113430 | 4 | 186 | 0.0 | 1.6 | 0.00 | 0.00 | 0.00 | 81 | 1011.1 |
| 20260508113312 | 4 | 186 | 0.0 | 1.6 | 0.00 | 0.00 | 0.00 | 81 | 1011.1 |
| 20260508113149 | 4 | 186 | 0.0 | 0.0 | 0.00 | 0.00 | 0.00 | 81 | 1011.1 |
| 20260508113031 | 4 | 186 | 0.0 | 0.0 | 0.00 | 0.00 | 0.00 | 81 | 1011.1 |
| 20260508112909 | 4 | 186 | 0.0 | 0.0 | 0.00 | 0.00 | 0.00 | 81 | 1011.1 |
| 20260508112751 | 4 | 186 | 0.0 | 0.0 | 0.00 | 0.00 | 0.00 | 81 | 1011.0 |
| 20260508112629 | 4 | 186 | 0.0 | 0.0 | 0.00 | 0.00 | 0.00 | 81 | 1011.0 |
| 20260508112507 | 4 | 186 | 0.0 | 0.0 | 0.00 | 0.00 | 0.00 | 81 | 1011.0 |
| 20260508112345 | 4 | 186 | 0.0 | 0.0 | 0.00 | 0.00 | 0.00 | 81 | 1011.0 |
| 20260508112223 | 4 | 186 | 0.0 | 0.0 | 0.00 | 0.00 | 0.00 | 81 | 1010.9 |
| 20260508112104 | 4 | 186 | 0.0 | 0.0 | 0.00 | 0.00 | 0.00 | 81 | 1010.9 |
| 20260508111921 | 4 | 186 | 0.0 | 0.0 | 0.00 | 0.00 | 0.00 | 81 | 1010.9 |
| 20260508111758 | 4 | 186 | 0.0 | 0.0 | 0.00 | 0.00 | 0.00 | 81 | 1010.9 |
| 20260508111641 | 3 | 186 | 0.0 | 0.0 | 0.00 | 0.00 | 0.00 | 81 | 1010.8 |
| 20260508111523 | 3 | 186 | 0.0 | 0.0 | 0.00 | 0.00 | 0.00 | 81 | 1010.9 |
| 20260508111401 | 3 | 186 | 0.0 | 0.0 | 0.00 | 0.00 | 0.00 | 81 | 1010.8 |
| 20260508111239 | 3 | 186 | 0.0 | 0.0 | 0.00 | 0.00 | 0.00 | 81 | 1010.8 |
| 20260508111117 | 3 | 186 | 0.0 | 0.0 | 0.00 | 0.00 | 0.00 | 82 | 1010.7 |
| 20260508110937 | 3 | 186 | 0.0 | 0.0 | 0.00 | 0.00 | 0.00 | 82 | 1010.7 |
| 20260508110814 | 3 | 186 | 0.0 | 0.0 | 0.00 | 0.00 | 0.00 | 81 | 1010.7 |
| 20260508110652 | 3 | 186 | 0.0 | 0.0 | 0.00 | 0.00 | 0.00 | 81 | 1010.7 |
| 20260508110531 | 3 | 186 | 0.0 | 0.0 | 0.00 | 0.00 | 0.00 | 82 | 1010.7 |
| 20260508110407 | 3 | 186 | 0.0 | 0.0 | 0.00 | 0.00 | 0.00 | 82 | 1010.7 |
| 20260508110249 | 3 | 186 | 0.0 | 0.0 | 0.00 | 0.00 | 0.00 | 82 | 1010.7 |
| 20260508110127 | 3 | 186 | 0.0 | 0.0 | 0.00 | 0.00 | 0.00 | 82 | 1010.7 |
| 20260508110005 | 3 | 186 | 0.0 | 0.0 | 0.00 | 0.00 | 0.00 | 82 | 1010.7 |
| 20260508105843 | 3 | 186 | 0.0 | 0.0 | 0.00 | 0.00 | 0.00 | 82 | 1010.7 |
| 20260508105725 | 3 | 186 | 0.0 | 0.0 | 0.00 | 0.00 | 0.00 | 82 | 1010.7 |
| 20260508105542 | 3 | 186 | 0.0 | 0.0 | 0.00 | 0.00 | 0.00 | 82 | 1010.7 |
| 20260508105419 | 3 | 186 | 0.0 | 0.0 | 0.00 | 0.00 | 0.00 | 82 | 1010.7 |
| 20260508105256 | 3 | 186 | 0.0 | 0.0 | 0.00 | 0.00 | 0.00 | 82 | 1010.7 |
| 20260508105117 | 3 | 186 | 0.0 | 0.0 | 0.00 | 0.00 | 0.00 | 82 | 1010.7 |
| 20260508104955 | 3 | 186 | 0.0 | 0.0 | 0.00 | 0.00 | 0.00 | 82 | 1010.7 |
| 20260508104833 | 3 | 186 | 0.0 | 0.0 | 0.00 | 0.00 | 0.00 | 82 | 1010.7 |
| 20260508104711 | 3 | 186 | 0.0 | 0.0 | 0.00 | 0.00 | 0.00 | 82 | 1010.7 |
| 20260508104515 | 3 | 186 | 0.0 | 0.0 | 0.00 | 0.00 | 0.00 | 82 | 1010.7 |
| 20260508104356 | 3 | 186 | 0.0 | 0.0 | 0.00 | 0.00 | 0.00 | 82 | 1010.7 |
| 20260508104233 | 3 | 186 | 0.0 | 0.0 | 0.00 | 0.00 | 0.00 | 82 | 1010.7 |
| 20260508104116 | 3 | 186 | 0.0 | 0.0 | 0.00 | 0.00 | 0.00 | 82 | 1010.6 |
| 20260508103944 | 3 | 186 | 0.0 | 0.0 | 0.00 | 0.00 | 0.00 | 82 | 1010.6 |
| 20260508103802 | 3 | 186 | 0.0 | 0.0 | 0.00 | 0.00 | 0.00 | 82 | 1010.6 |
| 20260508103641 | 3 | 186 | 0.0 | 0.0 | 0.00 | 0.00 | 0.00 | 82 | 1010.7 |
| 20260508103520 | 3 | 186 | 0.0 | 0.0 | 0.00 | 0.00 | 0.00 | 82 | 1010.6 |
| 20260508103358 | 3 | 186 | 0.0 | 0.0 | 0.00 | 0.00 | 0.00 | 82 | 1010.6 |
| 20260508103240 | 3 | 186 | 0.0 | 0.0 | 0.00 | 0.00 | 0.00 | 82 | 1010.6 |
| 20260508103122 | 3 | 186 | 0.0 | 0.0 | 0.00 | 0.00 | 0.00 | 82 | 1010.6 |
| 20260508103000 | 3 | 186 | 0.0 | 0.0 | 0.00 | 0.00 | 0.00 | 82 | 1010.5 |
| 20260508102843 | 3 | 186 | 0.0 | 0.0 | 0.00 | 0.00 | 0.00 | 82 | 1010.5 |
| 20260508102709 | 3 | 186 | 0.0 | 0.0 | 0.00 | 0.00 | 0.00 | 82 | 1010.5 |
| 20260508102547 | 3 | 186 | 0.0 | 0.0 | 0.00 | 0.00 | 0.00 | 82 | 1010.5 |
| 20260508102428 | 3 | 186 | 0.0 | 0.0 | 0.00 | 0.00 | 0.00 | 82 | 1010.6 |
| 20260508102308 | 3 | 186 | 0.0 | 0.0 | 0.00 | 0.00 | 0.00 | 82 | 1010.5 |
| 20260508102130 | 3 | 186 | 0.0 | 0.0 | 0.00 | 0.00 | 0.00 | 82 | 1010.6 |
| 20260508102011 | 3 | 186 | 0.0 | 0.0 | 0.00 | 0.00 | 0.00 | 82 | 1010.6 |
| 20260508101851 | 3 | 186 | 0.0 | 0.0 | 0.00 | 0.00 | 0.00 | 82 | 1010.6 |
| 20260508101729 | 3 | 186 | 0.0 | 0.0 | 0.00 | 0.00 | 0.00 | 82 | 1010.6 |
| 20260508101557 | 3 | 186 | 0.0 | 0.0 | 0.00 | 0.00 | 0.00 | 82 | 1010.6 |
| 20260508101418 | 3 | 186 | 0.0 | 0.0 | 0.00 | 0.00 | 0.00 | 82 | 1010.6 |
| 20260508101256 | 3 | 186 | 0.0 | 0.0 | 0.00 | 0.00 | 0.00 | 82 | 1010.6 |
| 20260508101139 | 3 | 186 | 0.0 | 0.0 | 0.00 | 0.00 | 0.00 | 82 | 1010.6 |
| 20260508101022 | 3 | 186 | 0.0 | 0.0 | 0.00 | 0.00 | 0.00 | 82 | 1010.6 |
| 20260508100901 | 3 | 186 | 0.0 | 0.0 | 0.00 | 0.00 | 0.00 | 82 | 1010.6 |
| 20260508100740 | 3 | 186 | 0.0 | 0.0 | 0.00 | 0.00 | 0.00 | 81 | 1010.6 |
| 20260508100619 | 3 | 186 | 0.0 | 0.0 | 0.00 | 0.00 | 0.00 | 81 | 1010.6 |
| 20260508100447 | 3 | 186 | 0.0 | 0.0 | 0.00 | 0.00 | 0.00 | 81 | 1010.6 |
| 20260508100325 | 3 | 186 | 0.0 | 0.0 | 0.00 | 0.00 | 0.00 | 81 | 1010.6 |
| 20260508100205 | 3 | 186 | 0.0 | 0.0 | 0.00 | 0.00 | 0.00 | 81 | 1010.7 |
| 20260508100043 | 3 | 186 | 0.0 | 0.0 | 0.00 | 0.00 | 0.00 | 81 | 1010.7 |
| 20260508095921 | 3 | 186 | 0.0 | 0.0 | 0.00 | 0.00 | 0.00 | 81 | 1010.7 |
| 20260508095804 | 3 | 186 | 0.0 | 0.0 | 0.00 | 0.00 | 0.00 | 81 | 1010.7 |
| 20260508095626 | 3 | 186 | 0.0 | 0.0 | 0.00 | 0.00 | 0.00 | 81 | 1010.7 |
| 20260508095509 | 3 | 186 | 0.0 | 0.0 | 0.00 | 0.00 | 0.00 | 82 | 1010.7 |
| 20260508095347 | 3 | 186 | 0.0 | 0.0 | 0.00 | 0.00 | 0.00 | 82 | 1010.7 |
| 20260508095230 | 3 | 186 | 0.0 | 0.0 | 0.00 | 0.00 | 0.00 | 82 | 1010.7 |
| 20260508095047 | 3 | 186 | 0.0 | 0.0 | 0.00 | 0.00 | 0.00 | 81 | 1010.7 |
| 20260508094930 | 3 | 186 | 0.0 | 0.0 | 0.00 | 0.00 | 0.00 | 81 | 1010.7 |
| 20260508094808 | 3 | 186 | 0.0 | 0.0 | 0.00 | 0.00 | 0.00 | 81 | 1010.7 |
| 20260508094651 | 3 | 186 | 0.0 | 0.0 | 0.00 | 0.00 | 0.00 | 81 | 1010.7 |
| 20260508094508 | 3 | 186 | 0.0 | 0.0 | 0.00 | 0.00 | 0.00 | 81 | 1010.7 |
| 20260508094351 | 3 | 186 | 0.0 | 0.0 | 0.00 | 0.00 | 0.00 | 81 | 1010.7 |
| 20260508094213 | 3 | 186 | 0.0 | 0.0 | 0.00 | 0.00 | 0.00 | 81 | 1010.7 |
| 20260508094055 | 3 | 186 | 0.0 | 0.0 | 0.00 | 0.00 | 0.00 | 81 | 1010.7 |
| 20260508093919 | 3 | 186 | 0.0 | 0.0 | 0.00 | 0.00 | 0.00 | 81 | 1010.6 |
| 20260508093736 | 3 | 186 | 0.0 | 0.0 | 0.00 | 0.00 | 0.00 | 81 | 1010.6 |
| 20260508093615 | 4 | 186 | 0.0 | 0.0 | 0.00 | 0.00 | 0.00 | 81 | 1010.6 |
| 20260508093421 | 4 | 186 | 0.0 | 0.0 | 0.00 | 0.00 | 0.00 | 81 | 1010.6 |
| 20260508093259 | 4 | 186 | 0.0 | 0.0 | 0.00 | 0.00 | 0.00 | 81 | 1010.6 |
| 20260508093142 | 4 | 186 | 0.0 | 0.0 | 0.00 | 0.00 | 0.00 | 81 | 1010.6 |
| 20260508093000 | 4 | 186 | 0.0 | 0.0 | 0.00 | 0.00 | 0.00 | 81 | 1010.7 |
| 20260508092842 | 4 | 186 | 0.0 | 0.0 | 0.00 | 0.00 | 0.00 | 81 | 1010.7 |
| 20260508092658 | 4 | 186 | 0.0 | 0.0 | 0.00 | 0.00 | 0.00 | 81 | 1010.6 |
| 20260508092518 | 4 | 186 | 0.0 | 0.0 | 0.00 | 0.00 | 0.00 | 81 | 1010.6 |
| 20260508092358 | 4 | 186 | 0.0 | 0.0 | 0.00 | 0.00 | 0.00 | 81 | 1010.6 |
| 20260508092236 | 4 | 186 | 0.0 | 0.0 | 0.00 | 0.00 | 0.00 | 81 | 1010.6 |
| 20260508092119 | 4 | 186 | 0.0 | 0.0 | 0.00 | 0.00 | 0.00 | 81 | 1010.6 |
| 20260508091957 | 4 | 186 | 0.0 | 0.0 | 0.00 | 0.00 | 0.00 | 81 | 1010.6 |
| 20260508091841 | 4 | 186 | 0.0 | 0.0 | 0.00 | 0.00 | 0.00 | 81 | 1010.7 |
| 20260508091658 | 4 | 186 | 0.0 | 0.0 | 0.00 | 0.00 | 0.00 | 81 | 1010.6 |
| 20260508091539 | 4 | 186 | 0.0 | 0.0 | 0.00 | 0.00 | 0.00 | 81 | 1010.7 |
| 20260508091417 | 4 | 186 | 0.0 | 0.0 | 0.00 | 0.00 | 0.00 | 81 | 1010.7 |
| 20260508091242 | 5 | 186 | 0.0 | 0.0 | 0.00 | 0.00 | 0.00 | 81 | 1010.7 |
| 20260508091119 | 5 | 186 | 0.0 | 0.0 | 0.00 | 0.00 | 0.00 | 81 | 1010.7 |
| 20260508090939 | 5 | 186 | 0.0 | 0.0 | 0.00 | 0.00 | 0.00 | 81 | 1010.7 |
| 20260508090819 | 5 | 186 | 0.0 | 0.0 | 0.00 | 0.00 | 0.00 | 81 | 1010.7 |
| 20260508090657 | 5 | 186 | 0.0 | 0.0 | 0.00 | 0.00 | 0.00 | 81 | 1010.7 |
| 20260508090534 | 5 | 186 | 0.0 | 0.0 | 0.00 | 0.00 | 0.00 | 81 | 1010.7 |
| 20260508090340 | 5 | 186 | 0.0 | 0.0 | 0.00 | 0.00 | 0.00 | 81 | 1010.8 |
| 20260508090217 | 5 | 186 | 0.0 | 0.0 | 0.00 | 0.00 | 0.00 | 81 | 1010.8 |
| 20260508090057 | 5 | 186 | 0.0 | 0.0 | 0.00 | 0.00 | 0.00 | 81 | 1010.8 |
| 20260508085940 | 5 | 186 | 0.0 | 0.0 | 0.00 | 0.00 | 0.00 | 81 | 1010.8 |
| 20260508085801 | 5 | 186 | 0.0 | 0.0 | 0.00 | 0.00 | 0.00 | 81 | 1010.8 |
| 20260508085638 | 5 | 186 | 0.0 | 0.0 | 0.00 | 0.00 | 0.00 | 81 | 1010.8 |
| 20260508085519 | 5 | 186 | 0.0 | 0.0 | 0.00 | 0.00 | 0.00 | 81 | 1010.8 |
| 20260508085400 | 5 | 186 | 0.0 | 0.0 | 0.00 | 0.00 | 0.00 | 81 | 1010.8 |
| 20260508085228 | 5 | 186 | 0.0 | 0.0 | 0.00 | 0.00 | 0.00 | 81 | 1010.8 |
| 20260508085111 | 5 | 186 | 0.0 | 0.0 | 0.00 | 0.00 | 0.00 | 81 | 1010.8 |
| 20260508084954 | 5 | 186 | 0.0 | 0.0 | 0.00 | 0.00 | 0.00 | 81 | 1010.8 |
| 20260508084811 | 5 | 186 | 0.0 | 0.0 | 0.00 | 0.00 | 0.00 | 81 | 1010.8 |
| 20260508084649 | 5 | 186 | 0.0 | 0.0 | 0.00 | 0.00 | 0.00 | 81 | 1010.8 |
| 20260508084530 | 5 | 186 | 0.0 | 0.0 | 0.00 | 0.00 | 0.00 | 81 | 1010.8 |
| 20260508084352 | 5 | 186 | 0.0 | 0.0 | 0.00 | 0.00 | 0.00 | 81 | 1010.8 |
| 20260508084209 | 5 | 186 | 0.0 | 0.0 | 0.00 | 0.00 | 0.00 | 81 | 1010.8 |
| 20260508084046 | 5 | 186 | 0.0 | 0.0 | 0.00 | 0.00 | 0.00 | 81 | 1010.8 |
| 20260508083928 | 5 | 186 | 0.0 | 0.0 | 0.00 | 0.00 | 0.00 | 81 | 1010.8 |
| 20260508083805 | 5 | 186 | 0.0 | 0.0 | 0.00 | 0.00 | 0.00 | 81 | 1010.8 |
| 20260508083643 | 5 | 186 | 0.0 | 0.0 | 0.00 | 0.00 | 0.00 | 81 | 1010.7 |
| 20260508083521 | 5 | 186 | 0.0 | 0.0 | 0.00 | 0.00 | 0.00 | 81 | 1010.7 |
| 20260508083347 | 5 | 186 | 0.0 | 0.0 | 0.00 | 0.00 | 0.00 | 81 | 1010.7 |
| 20260508083225 | 5 | 186 | 0.0 | 0.0 | 0.00 | 0.00 | 0.00 | 81 | 1010.7 |
| 20260508083103 | 5 | 186 | 0.0 | 0.0 | 0.00 | 0.00 | 0.00 | 81 | 1010.8 |
| 20260508082941 | 5 | 186 | 0.0 | 0.0 | 0.00 | 0.00 | 0.00 | 81 | 1010.8 |
| 20260508082823 | 5 | 186 | 0.0 | 0.0 | 0.00 | 0.00 | 0.00 | 81 | 1010.8 |
| 20260508082703 | 5 | 186 | 0.0 | 0.0 | 0.00 | 0.00 | 0.00 | 81 | 1010.8 |
| 20260508082541 | 5 | 186 | 0.0 | 0.0 | 0.00 | 0.00 | 0.00 | 81 | 1010.8 |
| 20260508082419 | 5 | 186 | 0.0 | 0.0 | 0.00 | 0.00 | 0.00 | 81 | 1010.8 |
| 20260508082257 | 5 | 186 | 0.0 | 0.0 | 0.00 | 0.00 | 0.00 | 81 | 1010.8 |
| 20260508082137 | 5 | 186 | 0.0 | 0.0 | 0.00 | 0.00 | 0.00 | 81 | 1010.8 |
| 20260508082015 | 5 | 186 | 0.0 | 0.0 | 0.00 | 0.00 | 0.00 | 80 | 1010.8 |
| 20260508081832 | 5 | 186 | 0.0 | 0.0 | 0.00 | 0.00 | 0.00 | 80 | 1010.8 |
| 20260508081710 | 5 | 186 | 0.0 | 0.0 | 0.00 | 0.00 | 0.00 | 80 | 1010.8 |
| 20260508081536 | 5 | 186 | 0.0 | 0.0 | 0.00 | 0.00 | 0.00 | 80 | 1010.8 |
| 20260508081414 | 5 | 186 | 0.0 | 0.0 | 0.00 | 0.00 | 0.00 | 80 | 1010.8 |
| 20260508081256 | 5 | 186 | 0.0 | 0.0 | 0.00 | 0.00 | 0.00 | 80 | 1010.8 |
| 20260508081138 | 5 | 186 | 0.0 | 0.0 | 0.00 | 0.00 | 0.00 | 81 | 1010.8 |
| 20260508081019 | 5 | 186 | 0.0 | 0.0 | 0.00 | 0.00 | 0.00 | 81 | 1010.9 |
| 20260508080857 | 5 | 186 | 0.0 | 0.0 | 0.00 | 0.00 | 0.00 | 81 | 1010.9 |
| 20260508080713 | 5 | 186 | 0.0 | 0.0 | 0.00 | 0.00 | 0.00 | 81 | 1010.9 |
| 20260508080530 | 5 | 186 | 0.0 | 0.0 | 0.00 | 0.00 | 0.00 | 81 | 1010.9 |
| 20260508080411 | 5 | 186 | 0.0 | 0.0 | 0.00 | 0.00 | 0.00 | 80 | 1010.9 |
| 20260508080206 | 5 | 186 | 0.0 | 0.0 | 0.00 | 0.00 | 0.00 | 80 | 1010.9 |
| 20260508080047 | 5 | 186 | 0.0 | 0.0 | 0.00 | 0.00 | 0.00 | 80 | 1010.9 |
| 20260508075929 | 5 | 186 | 0.0 | 0.0 | 0.00 | 0.00 | 0.00 | 80 | 1010.9 |
| 20260508075807 | 5 | 186 | 0.0 | 0.0 | 0.00 | 0.00 | 0.00 | 80 | 1010.9 |
| 20260508075649 | 5 | 186 | 0.0 | 0.0 | 0.00 | 0.00 | 0.00 | 80 | 1010.9 |
| 20260508075527 | 5 | 186 | 0.0 | 0.0 | 0.00 | 0.00 | 0.00 | 80 | 1010.8 |
| 20260508075405 | 5 | 186 | 0.0 | 0.0 | 0.00 | 0.00 | 0.00 | 80 | 1010.8 |
| 20260508075242 | 6 | 186 | 0.0 | 0.0 | 0.00 | 0.00 | 0.00 | 80 | 1010.9 |
| 20260508075124 | 6 | 186 | 0.0 | 0.0 | 0.00 | 0.00 | 0.00 | 80 | 1010.8 |
| 20260508074941 | 6 | 186 | 0.0 | 0.0 | 0.00 | 0.00 | 0.00 | 80 | 1010.8 |
| 20260508074818 | 6 | 186 | 0.0 | 0.0 | 0.00 | 0.00 | 0.00 | 80 | 1010.8 |
| 20260508074640 | 6 | 186 | 0.0 | 0.0 | 0.00 | 0.00 | 0.00 | 80 | 1010.9 |
| 20260508074520 | 6 | 186 | 0.0 | 0.0 | 0.00 | 0.00 | 0.00 | 80 | 1010.9 |
| 20260508074359 | 6 | 186 | 0.0 | 0.0 | 0.00 | 0.00 | 0.00 | 80 | 1010.9 |
| 20260508074236 | 6 | 186 | 0.0 | 0.0 | 0.00 | 0.00 | 0.00 | 80 | 1010.9 |
| 20260508074031 | 6 | 186 | 0.0 | 0.0 | 0.00 | 0.00 | 0.00 | 80 | 1010.9 |
| 20260508073909 | 6 | 186 | 0.0 | 0.0 | 0.00 | 0.00 | 0.00 | 80 | 1010.9 |
| 20260508073751 | 6 | 186 | 0.0 | 0.0 | 0.00 | 0.00 | 0.00 | 80 | 1010.8 |
| 20260508073629 | 6 | 186 | 0.0 | 0.0 | 0.00 | 0.00 | 0.00 | 80 | 1010.9 |
| 20260508073507 | 6 | 186 | 0.0 | 0.0 | 0.00 | 0.00 | 0.00 | 80 | 1010.9 |
| 20260508073324 | 6 | 186 | 0.0 | 0.0 | 0.00 | 0.00 | 0.00 | 80 | 1010.9 |
| 20260508073206 | 6 | 186 | 0.0 | 0.0 | 0.00 | 0.00 | 0.00 | 79 | 1010.9 |
| 20260508073023 | 6 | 186 | 0.0 | 0.0 | 0.00 | 0.00 | 0.00 | 79 | 1011.0 |
| 20260508072900 | 6 | 186 | 0.0 | 0.0 | 0.00 | 0.00 | 0.00 | 79 | 1011.0 |
| 20260508072738 | 6 | 186 | 0.0 | 0.0 | 0.00 | 0.00 | 0.00 | 79 | 1011.0 |
| 20260508072620 | 6 | 186 | 0.0 | 0.0 | 0.00 | 0.00 | 0.00 | 79 | 1011.0 |
| 20260508072436 | 6 | 186 | 0.0 | 0.0 | 0.00 | 0.00 | 0.00 | 79 | 1011.0 |
| 20260508072314 | 6 | 186 | 0.0 | 0.0 | 0.00 | 0.00 | 0.00 | 79 | 1011.0 |
| 20260508072131 | 6 | 186 | 0.0 | 0.0 | 0.00 | 0.00 | 0.00 | 79 | 1010.9 |
| 20260508072008 | 6 | 186 | 0.0 | 0.0 | 0.00 | 0.00 | 0.00 | 79 | 1010.9 |
| 20260508071850 | 6 | 186 | 0.0 | 0.0 | 0.00 | 0.00 | 0.00 | 79 | 1010.9 |
| 20260508071728 | 6 | 186 | 0.0 | 0.0 | 0.00 | 0.00 | 0.00 | 79 | 1010.8 |
| 20260508071545 | 6 | 186 | 0.0 | 0.0 | 0.00 | 0.00 | 0.00 | 79 | 1010.8 |
| 20260508071423 | 6 | 186 | 0.0 | 0.0 | 0.00 | 0.00 | 0.00 | 79 | 1010.9 |
| 20260508071304 | 6 | 185 | 0.0 | 0.0 | 0.00 | 0.00 | 0.00 | 79 | 1010.9 |
| 20260508071142 | 6 | 185 | 0.0 | 1.6 | 0.00 | 0.00 | 0.00 | 79 | 1010.9 |
| 20260508071021 | 6 | 185 | 0.0 | 1.6 | 0.00 | 0.00 | 0.00 | 79 | 1010.9 |
| 20260508070858 | 6 | 185 | 0.0 | 1.6 | 0.00 | 0.00 | 0.00 | 79 | 1010.8 |
| 20260508070740 | 6 | 185 | 0.0 | 1.6 | 0.00 | 0.00 | 0.00 | 79 | 1010.8 |
| 20260508070618 | 6 | 185 | 0.0 | 1.6 | 0.00 | 0.00 | 0.00 | 79 | 1010.8 |
| 20260508070456 | 7 | 193 | 0.0 | 1.6 | 0.00 | 0.00 | 0.00 | 79 | 1010.8 |
| 20260508070334 | 7 | 196 | 0.0 | 1.6 | 0.00 | 0.00 | 0.00 | 79 | 1010.9 |
| 20260508070212 | 7 | 196 | 0.0 | 0.0 | 0.00 | 0.00 | 0.00 | 79 | 1011.0 |
| 20260508070033 | 7 | 196 | 0.0 | 0.0 | 0.00 | 0.00 | 0.00 | 79 | 1011.0 |
| 20260508065911 | 7 | 196 | 0.0 | 0.0 | 0.00 | 0.00 | 0.00 | 79 | 1011.0 |
| 20260508065749 | 7 | 196 | 0.0 | 0.0 | 0.00 | 0.00 | 0.00 | 79 | 1011.1 |
| 20260508065627 | 7 | 196 | 0.0 | 0.0 | 0.00 | 0.00 | 0.00 | 78 | 1011.1 |
| 20260508065509 | 7 | 196 | 0.0 | 0.0 | 0.00 | 0.00 | 0.00 | 78 | 1011.1 |
| 20260508065347 | 7 | 196 | 0.0 | 0.0 | 0.00 | 0.00 | 0.00 | 79 | 1011.1 |
| 20260508065225 | 7 | 196 | 0.0 | 0.0 | 0.00 | 0.00 | 0.00 | 78 | 1011.1 |
| 20260508065103 | 7 | 196 | 0.0 | 0.0 | 0.00 | 0.00 | 0.00 | 78 | 1011.1 |
| 20260508064945 | 7 | 196 | 0.0 | 0.0 | 0.00 | 0.00 | 0.00 | 78 | 1011.1 |
| 20260508064823 | 7 | 196 | 0.0 | 0.0 | 0.00 | 0.00 | 0.00 | 78 | 1011.1 |
| 20260508064701 | 7 | 196 | 0.0 | 0.0 | 0.00 | 0.00 | 0.00 | 78 | 1011.1 |
| 20260508064539 | 7 | 196 | 0.0 | 0.0 | 0.00 | 0.00 | 0.00 | 78 | 1011.1 |
| 20260508064416 | 7 | 196 | 0.0 | 0.0 | 0.00 | 0.00 | 0.00 | 78 | 1011.1 |
| 20260508064259 | 7 | 196 | 0.0 | 0.0 | 0.00 | 0.00 | 0.00 | 78 | 1011.2 |
| 20260508064137 | 7 | 196 | 0.0 | 0.0 | 0.00 | 0.00 | 0.00 | 78 | 1011.2 |
| 20260508064016 | 7 | 196 | 0.0 | 0.0 | 0.00 | 0.00 | 0.00 | 78 | 1011.2 |
| 20260508063859 | 7 | 196 | 0.0 | 0.0 | 0.00 | 0.00 | 0.00 | 78 | 1011.2 |
| 20260508063728 | 7 | 196 | 0.0 | 0.0 | 0.00 | 0.00 | 0.00 | 78 | 1011.2 |
| 20260508063550 | 7 | 196 | 0.0 | 0.0 | 0.00 | 0.00 | 0.00 | 78 | 1011.2 |
| 20260508063428 | 7 | 196 | 0.0 | 0.0 | 0.00 | 0.00 | 0.00 | 77 | 1011.2 |
| 20260508063308 | 7 | 196 | 0.0 | 0.0 | 0.00 | 0.00 | 0.00 | 77 | 1011.2 |
| 20260508063130 | 7 | 196 | 0.0 | 0.0 | 0.00 | 0.00 | 0.00 | 77 | 1011.2 |
| 20260508063008 | 7 | 196 | 0.0 | 0.0 | 0.00 | 0.00 | 0.00 | 77 | 1011.2 |
| 20260508062848 | 7 | 196 | 0.0 | 0.0 | 0.00 | 0.00 | 0.00 | 77 | 1011.2 |
| 20260508062726 | 7 | 196 | 0.0 | 0.0 | 0.00 | 0.00 | 0.00 | 77 | 1011.2 |
| 20260508062533 | 7 | 196 | 0.0 | 0.0 | 0.00 | 0.00 | 0.00 | 77 | 1011.2 |
| 20260508062411 | 7 | 196 | 0.0 | 0.0 | 0.00 | 0.00 | 0.00 | 77 | 1011.1 |
| 20260508062253 | 7 | 196 | 0.0 | 0.0 | 0.00 | 0.00 | 0.00 | 77 | 1011.2 |
| 20260508062132 | 7 | 196 | 0.0 | 0.0 | 0.00 | 0.00 | 0.00 | 77 | 1011.1 |
| 20260508061958 | 7 | 196 | 0.0 | 0.0 | 0.00 | 0.00 | 0.00 | 77 | 1011.2 |
| 20260508061836 | 7 | 196 | 0.0 | 0.0 | 0.00 | 0.00 | 0.00 | 77 | 1011.1 |
| 20260508061716 | 7 | 196 | 0.0 | 0.0 | 0.00 | 0.00 | 0.00 | 77 | 1011.2 |
| 20260508061533 | 7 | 196 | 0.0 | 0.0 | 0.00 | 0.00 | 0.00 | 77 | 1011.1 |
| 20260508061401 | 7 | 196 | 0.0 | 0.0 | 0.00 | 0.00 | 0.00 | 77 | 1011.1 |
| 20260508061218 | 7 | 196 | 0.0 | 0.0 | 0.00 | 0.00 | 0.00 | 76 | 1011.1 |
| 20260508061057 | 7 | 196 | 0.0 | 0.0 | 0.00 | 0.00 | 0.00 | 76 | 1011.1 |
| 20260508060935 | 7 | 196 | 0.0 | 0.0 | 0.00 | 0.00 | 0.00 | 76 | 1011.1 |
| 20260508060818 | 7 | 196 | 0.0 | 0.0 | 0.00 | 0.00 | 0.00 | 76 | 1011.1 |
| 20260508060702 | 7 | 196 | 0.0 | 0.0 | 0.00 | 0.00 | 0.00 | 76 | 1011.1 |
| 20260508060542 | 7 | 196 | 0.0 | 0.0 | 0.00 | 0.00 | 0.00 | 76 | 1011.1 |
| 20260508060404 | 7 | 196 | 0.0 | 0.0 | 0.00 | 0.00 | 0.00 | 76 | 1011.1 |
| 20260508060242 | 7 | 196 | 0.0 | 0.0 | 0.00 | 0.00 | 0.00 | 76 | 1011.1 |
| 20260508060124 | 7 | 197 | 0.0 | 0.0 | 0.00 | 0.00 | 0.00 | 76 | 1011.2 |
| 20260508060038 | 7 | 240 | 0.0 | 0.0 | 0.00 | 0.00 | 0.00 | 76 | 1011.2 |
| 20260508055924 | 7 | 240 | 0.0 | 0.0 | 0.00 | 0.00 | 0.00 | 76 | 1011.2 |
| 20260508055828 | 7 | 240 | 0.0 | 0.0 | 0.00 | 0.00 | 0.00 | 76 | 1011.2 |
| 20260508055752 | 7 | 245 | 0.0 | 0.0 | 0.00 | 0.00 | 0.00 | 76 | 1011.2 |
| 20260508055633 | 7 | 245 | 0.0 | 0.0 | 0.00 | 0.00 | 0.00 | 76 | 1011.2 |
| 20260508055521 | 7 | 245 | 0.0 | 0.0 | 0.00 | 0.00 | 0.00 | 76 | 1011.2 |
| 20260508055445 | 7 | 245 | 0.0 | 0.0 | 0.00 | 0.00 | 0.00 | 76 | 1011.2 |
| 20260508055348 | 7 | 245 | 0.0 | 0.0 | 0.00 | 0.00 | 0.00 | 76 | 1011.2 |
| 20260508055250 | 7 | 245 | 0.0 | 0.0 | 0.00 | 0.00 | 0.00 | 76 | 1011.3 |
| 20260508055133 | 7 | 245 | 0.0 | 0.0 | 0.00 | 0.00 | 0.00 | 76 | 1011.3 |
| 20260508055056 | 7 | 245 | 0.0 | 0.0 | 0.00 | 0.00 | 0.00 | 76 | 1011.3 |
| 20260508054938 | 7 | 245 | 0.0 | 0.0 | 0.00 | 0.00 | 0.00 | 76 | 1011.3 |
| 20260508054821 | 7 | 245 | 0.0 | 0.0 | 0.00 | 0.00 | 0.00 | 76 | 1011.3 |
| 20260508054729 | 7 | 245 | 0.0 | 0.0 | 0.00 | 0.00 | 0.00 | 76 | 1011.3 |
| 20260508054652 | 7 | 245 | 0.0 | 0.0 | 0.00 | 0.00 | 0.00 | 76 | 1011.3 |
| 20260508054532 | 7 | 245 | 0.0 | 0.0 | 0.00 | 0.00 | 0.00 | 76 | 1011.3 |
| 20260508054434 | 7 | 246 | 0.0 | 0.0 | 0.00 | 0.00 | 0.00 | 76 | 1011.3 |
| 20260508054338 | 7 | 246 | 0.0 | 0.0 | 0.00 | 0.00 | 0.00 | 76 | 1011.3 |
| 20260508054240 | 7 | 246 | 0.0 | 0.0 | 0.00 | 0.00 | 0.00 | 76 | 1011.3 |
| 20260508054128 | 7 | 247 | 0.0 | 0.0 | 0.00 | 0.00 | 0.00 | 76 | 1011.3 |
| 20260508054030 | 7 | 246 | 0.0 | 0.0 | 0.00 | 0.00 | 0.00 | 76 | 1011.4 |
| 20260508053933 | 7 | 246 | 0.0 | 0.0 | 0.00 | 0.00 | 0.00 | 76 | 1011.4 |
| 20260508053835 | 7 | 246 | 0.0 | 0.0 | 0.00 | 0.00 | 0.00 | 76 | 1011.3 |
| 20260508053738 | 7 | 246 | 0.0 | 0.0 | 0.00 | 0.00 | 0.00 | 76 | 1011.3 |
| 20260508053620 | 7 | 246 | 0.0 | 0.0 | 0.00 | 0.00 | 0.00 | 76 | 1011.3 |
| 20260508053527 | 7 | 246 | 0.0 | 0.0 | 0.00 | 0.00 | 0.00 | 76 | 1011.3 |
| 20260508053429 | 7 | 246 | 0.0 | 0.0 | 0.00 | 0.00 | 0.00 | 76 | 1011.4 |
| 20260508053352 | 7 | 246 | 0.0 | 0.0 | 0.00 | 0.00 | 0.00 | 76 | 1011.4 |
| 20260508053235 | 7 | 246 | 0.0 | 0.0 | 0.00 | 0.00 | 0.00 | 76 | 1011.4 |
| 20260508053157 | 7 | 247 | 0.0 | 0.0 | 0.00 | 0.00 | 0.00 | 76 | 1011.4 |
| 20260508053040 | 7 | 246 | 0.0 | 0.0 | 0.00 | 0.00 | 0.00 | 76 | 1011.4 |
| 20260508052924 | 7 | 246 | 0.0 | 0.0 | 0.00 | 0.00 | 0.00 | 76 | 1011.3 |
| 20260508052831 | 7 | 246 | 0.0 | 0.0 | 0.00 | 0.00 | 0.00 | 76 | 1011.3 |
| 20260508052753 | 7 | 246 | 0.0 | 0.0 | 0.00 | 0.00 | 0.00 | 76 | 1011.4 |
| 20260508052636 | 7 | 246 | 0.0 | 0.0 | 0.00 | 0.00 | 0.00 | 76 | 1011.4 |
| 20260508052559 | 7 | 246 | 0.0 | 0.0 | 0.00 | 0.00 | 0.00 | 76 | 1011.3 |
| 20260508052421 | 7 | 246 | 0.0 | 0.0 | 0.00 | 0.00 | 0.00 | 76 | 1011.3 |
| 20260508052323 | 7 | 246 | 0.0 | 0.0 | 0.00 | 0.00 | 0.00 | 75 | 1011.3 |
| 20260508052227 | 7 | 247 | 0.0 | 0.0 | 0.00 | 0.00 | 0.00 | 75 | 1011.3 |
| 20260508052148 | 7 | 246 | 0.0 | 0.0 | 0.00 | 0.00 | 0.00 | 75 | 1011.3 |
| 20260508052034 | 7 | 247 | 0.0 | 0.0 | 0.00 | 0.00 | 0.00 | 75 | 1011.3 |
| 20260508051936 | 7 | 246 | 0.0 | 0.0 | 0.00 | 0.00 | 0.00 | 75 | 1011.3 |
| 20260508051840 | 7 | 246 | 0.0 | 0.0 | 0.00 | 0.00 | 0.00 | 75 | 1011.3 |
| 20260508051723 | 7 | 246 | 0.0 | 0.0 | 0.00 | 0.00 | 0.00 | 75 | 1011.3 |
| 20260508051647 | 7 | 246 | 0.0 | 0.0 | 0.00 | 0.00 | 0.00 | 75 | 1011.3 |
| 20260508051550 | 7 | 246 | 0.0 | 0.0 | 0.00 | 0.00 | 0.00 | 74 | 1011.3 |
| 20260508051452 | 7 | 246 | 0.0 | 0.0 | 0.00 | 0.00 | 0.00 | 74 | 1011.3 |
| 20260508051339 | 7 | 246 | 0.0 | 0.0 | 0.00 | 0.00 | 0.00 | 74 | 1011.3 |
| 20260508051241 | 7 | 246 | 0.0 | 0.0 | 0.00 | 0.00 | 0.00 | 73 | 1011.3 |
| 20260508051124 | 7 | 246 | 0.0 | 0.0 | 0.00 | 0.00 | 0.00 | 73 | 1011.3 |
| 20260508051028 | 7 | 246 | 0.0 | 0.0 | 0.00 | 0.00 | 0.00 | 73 | 1011.3 |
| 20260508050931 | 7 | 246 | 0.0 | 0.0 | 0.00 | 0.00 | 0.00 | 73 | 1011.3 |
| 20260508050834 | 7 | 234 | 0.0 | 0.0 | 0.00 | 0.00 | 0.00 | 73 | 1011.3 |
| 20260508050736 | 7 | 234 | 0.0 | 0.0 | 0.00 | 0.00 | 0.00 | 73 | 1011.3 |
| 20260508050624 | 7 | 217 | 0.0 | 0.0 | 0.00 | 0.00 | 0.00 | 73 | 1011.3 |
| 20260508050526 | 7 | 217 | 0.0 | 0.0 | 0.00 | 0.00 | 0.00 | 74 | 1011.2 |
| 20260508050429 | 7 | 217 | 0.0 | 0.0 | 0.00 | 0.00 | 0.00 | 73 | 1011.3 |
| 20260508050331 | 7 | 217 | 0.0 | 0.0 | 0.00 | 0.00 | 0.00 | 74 | 1011.2 |
| 20260508050235 | 7 | 217 | 0.0 | 0.0 | 0.00 | 0.00 | 0.00 | 74 | 1011.2 |
| 20260508050138 | 7 | 217 | 0.0 | 0.0 | 0.00 | 0.00 | 0.00 | 73 | 1011.2 |
| 20260508050026 | 7 | 217 | 0.0 | 0.0 | 0.00 | 0.00 | 0.00 | 73 | 1011.2 |
| 20260508045929 | 7 | 217 | 0.0 | 0.0 | 0.00 | 0.00 | 0.00 | 73 | 1011.2 |
| 20260508045832 | 7 | 217 | 0.0 | 0.0 | 0.00 | 0.00 | 0.00 | 73 | 1011.2 |
| 20260508045736 | 7 | 217 | 0.0 | 0.0 | 0.00 | 0.00 | 0.00 | 73 | 1011.2 |
| 20260508045640 | 7 | 217 | 0.0 | 0.0 | 0.00 | 0.00 | 0.00 | 73 | 1011.2 |
| 20260508045524 | 7 | 217 | 0.0 | 0.0 | 0.00 | 0.00 | 0.00 | 73 | 1011.2 |
| 20260508045431 | 7 | 217 | 0.0 | 0.0 | 0.00 | 0.00 | 0.00 | 73 | 1011.2 |
| 20260508045333 | 7 | 216 | 0.0 | 0.0 | 0.00 | 0.00 | 0.00 | 73 | 1011.2 |
| 20260508045235 | 7 | 215 | 0.0 | 0.0 | 0.00 | 0.00 | 0.00 | 73 | 1011.1 |
| 20260508045137 | 7 | 215 | 0.0 | 0.0 | 0.00 | 0.00 | 0.00 | 73 | 1011.1 |
| 20260508045020 | 7 | 215 | 0.0 | 0.0 | 0.00 | 0.00 | 0.00 | 73 | 1011.1 |
| 20260508044924 | 7 | 215 | 0.0 | 0.0 | 0.00 | 0.00 | 0.00 | 73 | 1011.1 |
| 20260508044832 | 7 | 215 | 0.0 | 0.0 | 0.00 | 0.00 | 0.00 | 73 | 1011.1 |
| 20260508044756 | 7 | 215 | 0.0 | 0.0 | 0.00 | 0.00 | 0.00 | 72 | 1011.1 |
| 20260508044639 | 7 | 215 | 0.0 | 0.0 | 0.00 | 0.00 | 0.00 | 72 | 1011.1 |
| 20260508044521 | 7 | 215 | 0.0 | 0.0 | 0.00 | 0.00 | 0.00 | 72 | 1011.0 |
| 20260508044423 | 7 | 215 | 0.0 | 0.0 | 0.00 | 0.00 | 0.00 | 72 | 1011.1 |
| 20260508044326 | 7 | 213 | 0.0 | 0.0 | 0.00 | 0.00 | 0.00 | 72 | 1011.1 |
| 20260508044232 | 7 | 213 | 0.0 | 0.0 | 0.00 | 0.00 | 0.00 | 72 | 1011.0 |
| 20260508044134 | 7 | 213 | 0.0 | 0.0 | 0.00 | 0.00 | 0.00 | 72 | 1011.0 |
| 20260508044036 | 7 | 213 | 0.0 | 0.0 | 0.00 | 0.00 | 0.00 | 72 | 1011.0 |
| 20260508043939 | 7 | 213 | 0.0 | 0.0 | 0.00 | 0.00 | 0.00 | 72 | 1011.1 |
| 20260508043821 | 7 | 213 | 0.0 | 0.0 | 0.00 | 0.00 | 0.00 | 72 | 1011.0 |
| 20260508043724 | 7 | 213 | 0.0 | 0.0 | 0.00 | 0.00 | 0.00 | 71 | 1011.0 |
| 20260508043630 | 7 | 213 | 0.0 | 0.0 | 0.00 | 0.00 | 0.00 | 71 | 1011.1 |
| 20260508043532 | 7 | 213 | 0.0 | 0.0 | 0.00 | 0.00 | 0.00 | 71 | 1011.1 |
| 20260508043454 | 7 | 213 | 0.0 | 0.0 | 0.00 | 0.00 | 0.00 | 71 | 1011.1 |
| 20260508043355 | 7 | 213 | 0.0 | 0.0 | 0.00 | 0.00 | 0.00 | 71 | 1011.1 |
| 20260508043237 | 7 | 213 | 0.0 | 0.0 | 0.00 | 0.00 | 0.00 | 71 | 1011.1 |
| 20260508043200 | 7 | 213 | 0.0 | 0.0 | 0.00 | 0.00 | 0.00 | 71 | 1011.1 |
| 20260508043021 | 7 | 213 | 0.0 | 0.0 | 0.00 | 0.00 | 0.00 | 70 | 1011.1 |
| 20260508042943 | 7 | 213 | 0.0 | 0.0 | 0.00 | 0.00 | 0.00 | 70 | 1011.1 |
| 20260508042829 | 7 | 213 | 0.0 | 0.0 | 0.00 | 0.00 | 0.00 | 70 | 1011.1 |
| 20260508042731 | 7 | 213 | 0.0 | 0.0 | 0.00 | 0.00 | 0.00 | 70 | 1011.1 |
| 20260508042634 | 7 | 213 | 0.0 | 0.0 | 0.00 | 0.00 | 0.00 | 70 | 1011.1 |
| 20260508042535 | 7 | 213 | 0.0 | 0.0 | 0.00 | 0.00 | 0.00 | 70 | 1011.0 |
| 20260508042458 | 7 | 213 | 0.0 | 0.0 | 0.00 | 0.00 | 0.00 | 70 | 1011.0 |
| 20260508042358 | 7 | 213 | 0.0 | 0.0 | 0.00 | 0.00 | 0.00 | 69 | 1011.0 |
| 20260508042240 | 7 | 213 | 0.0 | 0.0 | 0.00 | 0.00 | 0.00 | 69 | 1011.0 |
| 20260508042126 | 8 | 213 | 0.0 | 0.0 | 0.00 | 0.00 | 0.00 | 69 | 1011.0 |
| 20260508042029 | 8 | 213 | 0.0 | 0.0 | 0.00 | 0.00 | 0.00 | 69 | 1011.0 |
| 20260508041931 | 8 | 213 | 0.0 | 0.0 | 0.00 | 0.00 | 0.00 | 68 | 1011.0 |
| 20260508041834 | 8 | 213 | 0.0 | 0.0 | 0.00 | 0.00 | 0.00 | 68 | 1011.0 |
| 20260508041736 | 8 | 213 | 0.0 | 0.0 | 0.00 | 0.00 | 0.00 | 68 | 1011.0 |
| 20260508041638 | 8 | 213 | 0.0 | 0.0 | 0.00 | 0.00 | 0.00 | 67 | 1011.0 |
| 20260508041524 | 8 | 213 | 0.0 | 0.0 | 0.00 | 0.00 | 0.00 | 67 | 1011.0 |
| 20260508041447 | 8 | 213 | 0.0 | 0.0 | 0.00 | 0.00 | 0.00 | 67 | 1011.0 |
| 20260508041328 | 8 | 213 | 0.0 | 0.0 | 0.00 | 0.00 | 0.00 | 66 | 1011.1 |
| 20260508041231 | 8 | 213 | 0.0 | 0.0 | 0.00 | 0.00 | 0.00 | 66 | 1011.1 |
| 20260508041153 | 8 | 213 | 0.0 | 0.0 | 0.00 | 0.00 | 0.00 | 66 | 1011.1 |
| 20260508041034 | 8 | 213 | 0.0 | 0.0 | 0.00 | 0.00 | 0.00 | 65 | 1011.1 |
| 20260508040936 | 8 | 214 | 0.0 | 0.0 | 0.00 | 0.00 | 0.00 | 65 | 1011.1 |
| 20260508040837 | 8 | 215 | 0.0 | 0.0 | 0.00 | 0.00 | 0.00 | 65 | 1011.1 |
| 20260508040723 | 9 | 215 | 0.0 | 1.6 | 0.00 | 0.00 | 0.00 | 65 | 1011.1 |
| 20260508040625 | 9 | 215 | 0.0 | 1.6 | 0.00 | 0.00 | 0.00 | 64 | 1011.1 |
| 20260508040548 | 9 | 215 | 0.0 | 1.6 | 0.00 | 0.00 | 0.00 | 64 | 1011.1 |
| 20260508040429 | 9 | 215 | 0.0 | 3.2 | 0.00 | 0.00 | 0.00 | 64 | 1011.1 |
| 20260508040331 | 9 | 215 | 0.0 | 4.8 | 0.00 | 0.00 | 0.00 | 63 | 1011.1 |
| 20260508040233 | 9 | 215 | 0.0 | 4.8 | 0.00 | 0.00 | 0.00 | 63 | 1011.1 |
| 20260508040155 | 9 | 215 | 0.0 | 4.8 | 0.00 | 0.00 | 0.00 | 63 | 1011.2 |
| 20260508040039 | 9 | 214 | 0.0 | 6.4 | 0.00 | 0.00 | 0.00 | 63 | 1011.1 |
| 20260508035919 | 9 | 215 | 0.0 | 6.4 | 0.00 | 0.00 | 0.00 | 63 | 1011.1 |
| 20260508035757 | 9 | 215 | 0.0 | 6.4 | 0.00 | 0.00 | 0.00 | 63 | 1011.1 |
| 20260508035635 | 9 | 215 | 1.6 | 6.4 | 0.00 | 0.00 | 0.00 | 62 | 1011.1 |
| 20260508035513 | 9 | 211 | 1.6 | 6.4 | 0.00 | 0.00 | 0.00 | 62 | 1011.1 |
| 20260508035334 | 9 | 204 | 3.2 | 6.4 | 0.00 | 0.00 | 0.00 | 62 | 1011.1 |
| 20260508035211 | 9 | 214 | 1.6 | 6.4 | 0.00 | 0.00 | 0.00 | 62 | 1011.1 |
| 20260508035049 | 9 | 207 | 0.0 | 0.0 | 0.00 | 0.00 | 0.00 | 62 | 1011.0 |
| 20260508034931 | 9 | 207 | 0.0 | 0.0 | 0.00 | 0.00 | 0.00 | 62 | 1011.1 |
| 20260508034752 | 9 | 207 | 0.0 | 3.2 | 0.00 | 0.00 | 0.00 | 62 | 1011.0 |
| 20260508034630 | 9 | 207 | 0.0 | 4.8 | 0.00 | 0.00 | 0.00 | 62 | 1011.1 |
| 20260508034444 | 9 | 207 | 0.0 | 4.8 | 0.00 | 0.00 | 0.00 | 62 | 1011.0 |
| 20260508034322 | 9 | 207 | 0.0 | 4.8 | 0.00 | 0.00 | 0.00 | 62 | 1011.1 |
| 20260508034204 | 9 | 207 | 0.0 | 4.8 | 0.00 | 0.00 | 0.00 | 62 | 1011.1 |
| 20260508034021 | 9 | 207 | 1.6 | 4.8 | 0.00 | 0.00 | 0.00 | 62 | 1011.1 |
| 20260508033859 | 9 | 206 | 1.6 | 4.8 | 0.00 | 0.00 | 0.00 | 62 | 1011.1 |
| 20260508033736 | 9 | 207 | 0.0 | 4.8 | 0.00 | 0.00 | 0.00 | 62 | 1011.1 |
| 20260508033614 | 9 | 232 | 0.0 | 0.0 | 0.00 | 0.00 | 0.00 | 62 | 1011.1 |
| 20260508033435 | 9 | 232 | 0.0 | 0.0 | 0.00 | 0.00 | 0.00 | 62 | 1011.1 |
| 20260508033313 | 10 | 232 | 0.0 | 0.0 | 0.00 | 0.00 | 0.00 | 62 | 1011.1 |
| 20260508033155 | 10 | 232 | 0.0 | 0.0 | 0.00 | 0.00 | 0.00 | 61 | 1011.1 |
| 20260508033011 | 10 | 232 | 0.0 | 4.8 | 0.00 | 0.00 | 0.00 | 61 | 1011.2 |
| 20260508032838 | 10 | 232 | 0.0 | 4.8 | 0.00 | 0.00 | 0.00 | 61 | 1011.2 |
| 20260508032716 | 10 | 240 | 0.0 | 4.8 | 0.00 | 0.00 | 0.00 | 61 | 1011.2 |
| 20260508032554 | 10 | 240 | 0.0 | 4.8 | 0.00 | 0.00 | 0.00 | 61 | 1011.2 |
| 20260508032436 | 10 | 240 | 0.0 | 9.7 | 0.00 | 0.00 | 0.00 | 60 | 1011.2 |
| 20260508032318 | 10 | 240 | 1.6 | 9.7 | 0.00 | 0.00 | 0.00 | 60 | 1011.2 |
| 20260508032155 | 10 | 240 | 3.2 | 9.7 | 0.00 | 0.00 | 0.00 | 61 | 1011.2 |
| 20260508032033 | 9 | 238 | 1.6 | 9.7 | 0.00 | 0.00 | 0.00 | 61 | 1011.2 |
| 20260508031911 | 9 | 267 | 1.6 | 12.9 | 0.00 | 0.00 | 0.00 | 60 | 1011.1 |
| 20260508031710 | 9 | 46 | 4.8 | 12.9 | 0.00 | 0.00 | 0.00 | 61 | 1011.1 |
| 20260508031547 | 9 | 355 | 3.2 | 12.9 | 0.00 | 0.00 | 0.00 | 61 | 1011.2 |
| 20260508031404 | 9 | 314 | 3.2 | 12.9 | 0.00 | 0.00 | 0.00 | 61 | 1011.2 |
| 20260508031242 | 9 | 141 | 6.4 | 12.9 | 0.00 | 0.00 | 0.00 | 61 | 1011.2 |
| 20260508031119 | 9 | 233 | 9.7 | 12.9 | 0.00 | 0.00 | 0.00 | 61 | 1011.3 |
| 20260508031001 | 8 | 200 | 6.4 | 12.9 | 0.00 | 0.00 | 0.00 | 61 | 1011.3 |
| 20260508030839 | 8 | 215 | 4.8 | 12.9 | 0.00 | 0.00 | 0.00 | 61 | 1011.2 |
| 20260508030717 | 8 | 205 | 1.6 | 12.9 | 0.00 | 0.00 | 0.00 | 61 | 1011.2 |
| 20260508030555 | 8 | 326 | 3.2 | 12.9 | 0.00 | 0.00 | 0.00 | 61 | 1011.2 |
| 20260508030437 | 8 | 331 | 4.8 | 12.9 | 0.00 | 0.00 | 0.00 | 62 | 1011.3 |
| 20260508030315 | 8 | 22 | 6.4 | 12.9 | 0.00 | 0.00 | 0.00 | 62 | 1011.3 |
| 20260508030152 | 8 | 355 | 6.4 | 12.9 | 0.00 | 0.00 | 0.00 | 63 | 1011.3 |
| 20260508030029 | 8 | 5 | 4.8 | 9.7 | 0.00 | 0.00 | 0.00 | 64 | 1011.4 |
| 20260508025856 | 8 | 333 | 3.2 | 6.4 | 0.00 | 0.00 | 0.00 | 64 | 1011.3 |
| 20260508025737 | 9 | 337 | 3.2 | 6.4 | 0.00 | 0.00 | 0.00 | 64 | 1011.3 |
| 20260508025614 | 9 | 329 | 3.2 | 6.4 | 0.00 | 0.00 | 0.00 | 64 | 1011.3 |
| 20260508025436 | 9 | 331 | 1.6 | 4.8 | 0.00 | 0.00 | 0.00 | 63 | 1011.2 |
| 20260508025305 | 9 | 296 | 0.0 | 4.8 | 0.00 | 0.00 | 0.00 | 62 | 1011.1 |
| 20260508025140 | 9 | 205 | 0.0 | 4.8 | 0.00 | 0.00 | 0.00 | 62 | 1011.2 |
| 20260508024958 | 9 | 188 | 0.0 | 6.4 | 0.00 | 0.00 | 0.00 | 62 | 1011.1 |
| 20260508024838 | 9 | 186 | 1.6 | 6.4 | 0.00 | 0.00 | 0.00 | 62 | 1011.0 |
| 20260508024644 | 9 | 183 | 1.6 | 6.4 | 0.00 | 0.00 | 0.00 | 62 | 1011.1 |
| 20260508024520 | 9 | 190 | 3.2 | 6.4 | 0.00 | 0.00 | 0.00 | 62 | 1011.1 |
| 20260508024358 | 9 | 180 | 3.2 | 6.4 | 0.00 | 0.00 | 0.00 | 62 | 1011.0 |
| 20260508024236 | 9 | 179 | 3.2 | 6.4 | 0.00 | 0.00 | 0.00 | 62 | 1011.0 |
| 20260508024117 | 9 | 178 | 3.2 | 4.8 | 0.00 | 0.00 | 0.00 | 61 | 1011.0 |
| 20260508023955 | 9 | 178 | 3.2 | 4.8 | 0.00 | 0.00 | 0.00 | 61 | 1011.1 |
| 20260508023836 | 9 | 174 | 1.6 | 4.8 | 0.00 | 0.00 | 0.00 | 60 | 1011.0 |
| 20260508023713 | 10 | 186 | 1.6 | 4.8 | 0.00 | 0.00 | 0.00 | 60 | 1011.1 |
| 20260508023540 | 10 | 192 | 0.0 | 1.6 | 0.00 | 0.00 | 0.00 | 60 | 1011.1 |
| 20260508023418 | 10 | 192 | 0.0 | 4.8 | 0.00 | 0.00 | 0.00 | 59 | 1011.1 |
| 20260508023213 | 10 | 192 | 0.0 | 4.8 | 0.00 | 0.00 | 0.00 | 59 | 1011.1 |
| 20260508023050 | 10 | 192 | 0.0 | 4.8 | 0.00 | 0.00 | 0.00 | 59 | 1011.1 |
| 20260508022928 | 10 | 192 | 0.0 | 4.8 | 0.00 | 0.00 | 0.00 | 59 | 1011.0 |
| 20260508022749 | 10 | 192 | 0.0 | 4.8 | 0.00 | 0.00 | 0.00 | 59 | 1011.0 |
| 20260508022631 | 10 | 192 | 1.6 | 4.8 | 0.00 | 0.00 | 0.00 | 58 | 1011.0 |
| 20260508022509 | 10 | 184 | 3.2 | 4.8 | 0.00 | 0.00 | 0.00 | 59 | 1011.0 |
| 20260508022347 | 10 | 183 | 1.6 | 4.8 | 0.00 | 0.00 | 0.00 | 59 | 1011.0 |
| 20260508022229 | 10 | 186 | 0.0 | 4.8 | 0.00 | 0.00 | 0.00 | 59 | 1011.0 |
| 20260508022106 | 10 | 211 | 0.0 | 4.8 | 0.00 | 0.00 | 0.00 | 58 | 1011.1 |
| 20260508021923 | 10 | 217 | 0.0 | 4.8 | 0.00 | 0.00 | 0.00 | 56 | 1011.2 |
| 20260508021740 | 10 | 217 | 0.0 | 4.8 | 0.00 | 0.00 | 0.00 | 56 | 1011.1 |
| 20260508021622 | 10 | 244 | 0.0 | 4.8 | 0.00 | 0.00 | 0.00 | 55 | 1011.2 |
| 20260508021500 | 10 | 244 | 1.6 | 4.8 | 0.00 | 0.00 | 0.00 | 55 | 1011.2 |
| 20260508021317 | 10 | 244 | 3.2 | 4.8 | 0.00 | 0.00 | 0.00 | 55 | 1011.2 |
| 20260508021155 | 10 | 238 | 1.6 | 4.8 | 0.00 | 0.00 | 0.00 | 55 | 1011.2 |
| 20260508021033 | 10 | 205 | 1.6 | 6.4 | 0.00 | 0.00 | 0.00 | 55 | 1011.2 |
| 20260508020854 | 10 | 190 | 1.6 | 6.4 | 0.00 | 0.00 | 0.00 | 54 | 1011.2 |
| 20260508020734 | 10 | 216 | 0.0 | 6.4 | 0.00 | 0.00 | 0.00 | 54 | 1011.2 |
| 20260508020611 | 10 | 209 | 1.6 | 6.4 | 0.00 | 0.00 | 0.00 | 53 | 1011.2 |
| 20260508020431 | 10 | 210 | 1.6 | 6.4 | 0.00 | 0.00 | 0.00 | 53 | 1011.2 |
| 20260508020314 | 10 | 234 | 3.2 | 6.4 | 0.00 | 0.00 | 0.00 | 53 | 1011.2 |
| 20260508020130 | 10 | 231 | 3.2 | 6.4 | 0.00 | 0.00 | 0.00 | 53 | 1011.2 |
| 20260508020007 | 10 | 231 | 3.2 | 6.4 | 0.00 | 0.00 | 0.00 | 52 | 1011.2 |
| 20260508015845 | 10 | 221 | 3.2 | 6.4 | 0.00 | 0.00 | 0.00 | 52 | 1011.2 |
| 20260508015705 | 10 | 218 | 3.2 | 6.4 | 0.00 | 0.00 | 0.00 | 52 | 1011.2 |
| 20260508015543 | 10 | 247 | 3.2 | 6.4 | 0.00 | 0.00 | 0.00 | 51 | 1011.2 |
| 20260508015358 | 10 | 245 | 1.6 | 4.8 | 0.00 | 0.00 | 0.00 | 51 | 1011.2 |
| 20260508015235 | 10 | 246 | 3.2 | 4.8 | 0.00 | 0.00 | 0.00 | 51 | 1011.1 |
| 20260508015101 | 10 | 261 | 1.6 | 11.3 | 0.00 | 0.00 | 0.00 | 51 | 1011.1 |
| 20260508014939 | 10 | 268 | 1.6 | 11.3 | 0.00 | 0.00 | 0.00 | 51 | 1011.0 |
| 20260508014817 | 10 | 268 | 1.6 | 11.3 | 0.00 | 0.00 | 0.00 | 51 | 1011.0 |
| 20260508014655 | 10 | 269 | 0.0 | 11.3 | 0.00 | 0.00 | 0.00 | 51 | 1011.0 |
| 20260508014532 | 10 | 256 | 3.2 | 11.3 | 0.00 | 0.00 | 0.00 | 51 | 1010.9 |
| 20260508014352 | 10 | 255 | 6.4 | 11.3 | 0.00 | 0.00 | 0.00 | 51 | 1010.9 |
| 20260508014234 | 10 | 301 | 1.6 | 8.0 | 0.00 | 0.00 | 0.00 | 51 | 1010.9 |
| 20260508014111 | 10 | 295 | 0.0 | 8.0 | 0.00 | 0.00 | 0.00 | 51 | 1010.9 |
| 20260508013954 | 10 | 295 | 1.6 | 8.0 | 0.00 | 0.00 | 0.00 | 51 | 1010.9 |
| 20260508013814 | 10 | 327 | 1.6 | 9.7 | 0.00 | 0.00 | 0.00 | 51 | 1010.9 |
| 20260508013631 | 10 | 317 | 3.2 | 9.7 | 0.00 | 0.00 | 0.00 | 50 | 1010.8 |
| 20260508013509 | 10 | 333 | 3.2 | 9.7 | 0.00 | 0.00 | 0.00 | 50 | 1010.8 |
| 20260508013347 | 10 | 315 | 3.2 | 9.7 | 0.00 | 0.00 | 0.00 | 50 | 1010.8 |
| 20260508013213 | 10 | 309 | 4.8 | 9.7 | 0.00 | 0.00 | 0.00 | 50 | 1010.8 |
| 20260508013051 | 10 | 311 | 6.4 | 9.7 | 0.00 | 0.00 | 0.00 | 50 | 1010.8 |
| 20260508012929 | 10 | 299 | 4.8 | 9.7 | 0.00 | 0.00 | 0.00 | 50 | 1010.8 |
| 20260508012808 | 10 | 290 | 6.4 | 9.7 | 0.00 | 0.00 | 0.00 | 50 | 1010.8 |
| 20260508012650 | 10 | 304 | 6.4 | 9.7 | 0.00 | 0.00 | 0.00 | 50 | 1010.8 |
| 20260508012528 | 10 | 292 | 4.8 | 12.9 | 0.00 | 0.00 | 0.00 | 51 | 1010.8 |
| 20260508012343 | 10 | 287 | 4.8 | 14.5 | 0.00 | 0.00 | 0.00 | 51 | 1010.7 |
| 20260508012221 | 10 | 304 | 3.2 | 22.5 | 0.00 | 0.00 | 0.00 | 51 | 1010.8 |
| 20260508012058 | 10 | 314 | 4.8 | 22.5 | 0.00 | 0.00 | 0.00 | 51 | 1010.8 |
| 20260508011941 | 10 | 341 | 6.4 | 22.5 | 0.00 | 0.00 | 0.00 | 51 | 1010.9 |
| 20260508011736 | 10 | 302 | 6.4 | 22.5 | 0.00 | 0.00 | 0.00 | 51 | 1010.9 |
| 20260508011613 | 10 | 280 | 9.7 | 22.5 | 0.00 | 0.00 | 0.00 | 50 | 1010.9 |
| 20260508011451 | 10 | 295 | 9.7 | 22.5 | 0.00 | 0.00 | 0.00 | 50 | 1010.9 |
| 20260508011333 | 10 | 240 | 11.3 | 17.7 | 0.00 | 0.00 | 0.00 | 49 | 1010.9 |
| 20260508011153 | 10 | 286 | 6.4 | 14.5 | 0.00 | 0.00 | 0.00 | 49 | 1010.9 |
| 20260508011010 | 10 | 276 | 3.2 | 4.8 | 0.00 | 0.00 | 0.00 | 50 | 1010.9 |
| 20260508010828 | 10 | 269 | 3.2 | 4.8 | 0.00 | 0.00 | 0.00 | 49 | 1010.9 |
| 20260508010711 | 10 | 273 | 1.6 | 4.8 | 0.00 | 0.00 | 0.00 | 50 | 1010.9 |
| 20260508010553 | 10 | 284 | 0.0 | 4.8 | 0.00 | 0.00 | 0.00 | 49 | 1011.0 |
| 20260508010410 | 10 | 286 | 0.0 | 4.8 | 0.00 | 0.00 | 0.00 | 49 | 1010.9 |
| 20260508010247 | 10 | 313 | 0.0 | 4.8 | 0.00 | 0.00 | 0.00 | 49 | 1010.9 |
| 20260508010125 | 10 | 313 | 0.0 | 4.8 | 0.00 | 0.00 | 0.00 | 50 | 1010.9 |
| 20260508010007 | 10 | 313 | 0.0 | 4.8 | 0.00 | 0.00 | 0.00 | 50 | 1010.8 |
| 20260508005845 | 10 | 313 | 1.6 | 4.8 | 0.00 | 0.00 | 0.00 | 50 | 1010.8 |
| 20260508005723 | 10 | 323 | 1.6 | 3.2 | 0.00 | 0.00 | 0.00 | 49 | 1010.8 |
| 20260508005600 | 10 | 323 | 0.0 | 0.0 | 0.00 | 0.00 | 0.00 | 50 | 1010.8 |
| 20260508005421 | 10 | 323 | 0.0 | 0.0 | 0.00 | 0.00 | 0.00 | 50 | 1010.7 |
| 20260508005258 | 10 | 323 | 0.0 | 0.0 | 0.00 | 0.00 | 0.00 | 50 | 1010.7 |
| 20260508005118 | 10 | 323 | 0.0 | 3.2 | 0.00 | 0.00 | 0.00 | 51 | 1010.7 |
| 20260508004934 | 10 | 323 | 0.0 | 4.8 | 0.00 | 0.00 | 0.00 | 50 | 1010.6 |
| 20260508004816 | 10 | 323 | 0.0 | 4.8 | 0.00 | 0.00 | 0.00 | 51 | 1010.7 |
| 20260508004655 | 10 | 323 | 0.0 | 4.8 | 0.00 | 0.00 | 0.00 | 51 | 1010.7 |
| 20260508004535 | 10 | 323 | 0.0 | 4.8 | 0.00 | 0.00 | 0.00 | 51 | 1010.6 |
| 20260508004412 | 10 | 323 | 0.0 | 4.8 | 0.00 | 0.00 | 0.00 | 51 | 1010.6 |
| 20260508004239 | 10 | 323 | 3.2 | 4.8 | 0.00 | 0.00 | 0.00 | 49 | 1010.6 |
| 20260508004055 | 10 | 344 | 3.2 | 4.8 | 0.00 | 0.00 | 0.00 | 49 | 1010.6 |
| 20260508003934 | 11 | 38 | 0.0 | 4.8 | 0.00 | 0.00 | 0.00 | 49 | 1010.5 |
| 20260508003754 | 11 | 331 | 0.0 | 4.8 | 0.00 | 0.00 | 0.00 | 50 | 1010.6 |
| 20260508003621 | 11 | 317 | 1.6 | 11.3 | 0.00 | 0.00 | 0.00 | 49 | 1010.6 |
| 20260508003437 | 11 | 329 | 0.0 | 11.3 | 0.00 | 0.00 | 0.00 | 48 | 1010.6 |
| 20260508003316 | 11 | 302 | 1.6 | 11.3 | 0.00 | 0.00 | 0.00 | 48 | 1010.5 |
| 20260508003153 | 11 | 305 | 1.6 | 11.3 | 0.00 | 0.00 | 0.00 | 48 | 1010.5 |
| 20260508003031 | 11 | 304 | 3.2 | 11.3 | 0.00 | 0.00 | 0.00 | 47 | 1010.6 |
| 20260508002913 | 11 | 325 | 6.4 | 11.3 | 0.00 | 0.00 | 0.00 | 47 | 1010.5 |
| 20260508002751 | 11 | 311 | 3.2 | 9.7 | 0.00 | 0.00 | 0.00 | 47 | 1010.5 |
| 20260508002629 | 11 | 328 | 1.6 | 8.0 | 0.00 | 0.00 | 0.00 | 47 | 1010.6 |
| 20260508002507 | 11 | 302 | 3.2 | 8.0 | 0.00 | 0.00 | 0.00 | 46 | 1010.5 |
| 20260508002331 | 11 | 296 | 0.0 | 6.4 | 0.00 | 0.00 | 0.00 | 46 | 1010.5 |
| 20260508002209 | 11 | 275 | 0.0 | 3.2 | 0.00 | 0.00 | 0.00 | 46 | 1010.6 |
| 20260508002047 | 11 | 273 | 0.0 | 3.2 | 0.00 | 0.00 | 0.00 | 46 | 1010.5 |
| 20260508001925 | 11 | 273 | 0.0 | 3.2 | 0.00 | 0.00 | 0.00 | 46 | 1010.5 |
| 20260508001807 | 11 | 273 | 0.0 | 3.2 | 0.00 | 0.00 | 0.00 | 46 | 1010.5 |
| 20260508001645 | 11 | 273 | 0.0 | 4.8 | 0.00 | 0.00 | 0.00 | 46 | 1010.5 |
| 20260508001523 | 11 | 273 | 1.6 | 4.8 | 0.00 | 0.00 | 0.00 | 46 | 1010.4 |
| 20260508001359 | 11 | 287 | 1.6 | 8.0 | 0.00 | 0.00 | 0.00 | 46 | 1010.5 |
| 20260508001220 | 11 | 286 | 0.0 | 9.7 | 0.00 | 0.00 | 0.00 | 46 | 1010.5 |
| 20260508001058 | 11 | 309 | 0.0 | 9.7 | 0.00 | 0.00 | 0.00 | 46 | 1010.5 |
| 20260508000935 | 11 | 311 | 1.6 | 9.7 | 0.00 | 0.00 | 0.00 | 45 | 1010.5 |
| 20260508000757 | 11 | 329 | 3.2 | 9.7 | 0.00 | 0.00 | 0.00 | 45 | 1010.5 |
| 20260508000639 | 11 | 281 | 6.4 | 9.7 | 0.00 | 0.00 | 0.00 | 45 | 1010.4 |
| 20260508000520 | 11 | 304 | 6.4 | 9.7 | 0.00 | 0.00 | 0.00 | 46 | 1010.5 |
| 20260508000359 | 11 | 298 | 4.8 | 9.7 | 0.00 | 0.00 | 0.00 | 46 | 1010.5 |
| 20260508000238 | 11 | 297 | 4.8 | 9.7 | 0.00 | 0.00 | 0.00 | 46 | 1010.5 |
| 20260508000115 | 11 | 304 | 6.4 | 9.7 | 0.00 | 0.00 | 0.00 | 46 | 1010.6 |
| 20260507235957 | 11 | 292 | 4.8 | 11.3 | 0.00 | 0.00 | 0.00 | 46 | 1010.6 |
| 20260507235814 | 11 | 342 | 4.8 | 11.3 | 0.00 | 0.00 | 0.00 | 46 | 1010.5 |
| 20260507235652 | 11 | 340 | 3.2 | 12.9 | 0.00 | 0.00 | 0.00 | 46 | 1010.6 |
| 20260507235508 | 11 | 299 | 4.8 | 12.9 | 0.00 | 0.00 | 0.00 | 46 | 1010.6 |
| 20260507235329 | 11 | 305 | 6.4 | 12.9 | 0.00 | 0.00 | 0.00 | 45 | 1010.6 |
| 20260507235147 | 11 | 299 | 6.4 | 14.5 | 0.00 | 0.00 | 0.00 | 45 | 1010.6 |
| 20260507235025 | 11 | 294 | 4.8 | 14.5 | 0.00 | 0.00 | 0.00 | 44 | 1010.5 |
| 20260507234842 | 11 | 311 | 9.7 | 14.5 | 0.00 | 0.00 | 0.00 | 44 | 1010.5 |
| 20260507234659 | 11 | 286 | 8.0 | 14.5 | 0.00 | 0.00 | 0.00 | 44 | 1010.5 |
| 20260507234540 | 11 | 306 | 8.0 | 14.5 | 0.00 | 0.00 | 0.00 | 44 | 1010.4 |
| 20260507234357 | 11 | 307 | 8.0 | 14.5 | 0.00 | 0.00 | 0.00 | 44 | 1010.4 |
| 20260507234235 | 11 | 300 | 8.0 | 14.5 | 0.00 | 0.00 | 0.00 | 44 | 1010.4 |
| 20260507234118 | 11 | 305 | 4.8 | 12.9 | 0.00 | 0.00 | 0.00 | 45 | 1010.4 |
| 20260507234000 | 11 | 304 | 3.2 | 9.7 | 0.00 | 0.00 | 0.00 | 45 | 1010.3 |
| 20260507233838 | 11 | 306 | 6.4 | 9.7 | 0.00 | 0.00 | 0.00 | 44 | 1010.4 |
| 20260507233654 | 11 | 316 | 6.4 | 9.7 | 0.00 | 0.00 | 0.00 | 44 | 1010.4 |
| 20260507233531 | 11 | 288 | 6.4 | 9.7 | 0.00 | 0.00 | 0.00 | 45 | 1010.4 |
| 20260507233413 | 11 | 315 | 4.8 | 9.7 | 0.00 | 0.00 | 0.00 | 45 | 1010.5 |
| 20260507233250 | 11 | 330 | 1.6 | 9.7 | 0.00 | 0.00 | 0.00 | 45 | 1010.4 |
| 20260507233128 | 11 | 300 | 4.8 | 12.9 | 0.00 | 0.00 | 0.00 | 45 | 1010.5 |
| 20260507233005 | 11 | 313 | 4.8 | 14.5 | 0.00 | 0.00 | 0.00 | 44 | 1010.4 |
| 20260507232822 | 11 | 310 | 4.8 | 16.1 | 0.00 | 0.00 | 0.00 | 44 | 1010.5 |
| 20260507232704 | 11 | 300 | 6.4 | 16.1 | 0.00 | 0.00 | 0.00 | 44 | 1010.5 |
| 20260507232541 | 11 | 296 | 4.8 | 16.1 | 0.00 | 0.00 | 0.00 | 44 | 1010.5 |
| 20260507232357 | 11 | 271 | 8.0 | 19.3 | 0.00 | 0.00 | 0.00 | 44 | 1010.5 |
| 20260507232234 | 11 | 315 | 9.7 | 19.3 | 0.00 | 0.00 | 0.00 | 43 | 1010.5 |
| 20260507232116 | 11 | 301 | 9.7 | 19.3 | 0.00 | 0.00 | 0.00 | 43 | 1010.5 |
| 20260507231958 | 11 | 322 | 8.0 | 19.3 | 0.00 | 0.00 | 0.00 | 44 | 1010.5 |
| 20260507231836 | 11 | 305 | 9.7 | 19.3 | 0.00 | 0.00 | 0.00 | 43 | 1010.5 |
| 20260507231713 | 11 | 300 | 11.3 | 19.3 | 0.00 | 0.00 | 0.00 | 43 | 1010.5 |
| 20260507231555 | 11 | 274 | 8.0 | 17.7 | 0.00 | 0.00 | 0.00 | 44 | 1010.5 |
| 20260507231438 | 11 | 280 | 9.7 | 17.7 | 0.00 | 0.00 | 0.00 | 43 | 1010.5 |
| 20260507231315 | 11 | 276 | 6.4 | 14.5 | 0.00 | 0.00 | 0.00 | 43 | 1010.5 |
| 20260507231157 | 11 | 336 | 8.0 | 14.5 | 0.00 | 0.00 | 0.00 | 43 | 1010.5 |
| 20260507231034 | 11 | 306 | 8.0 | 14.5 | 0.00 | 0.00 | 0.00 | 43 | 1010.5 |
| 20260507230915 | 12 | 333 | 6.4 | 14.5 | 0.00 | 0.00 | 0.00 | 43 | 1010.6 |
| 20260507230751 | 12 | 246 | 6.4 | 19.3 | 0.00 | 0.00 | 0.00 | 43 | 1010.6 |
| 20260507230608 | 12 | 308 | 6.4 | 20.9 | 0.00 | 0.00 | 0.00 | 43 | 1010.6 |
| 20260507230446 | 12 | 290 | 9.7 | 20.9 | 0.00 | 0.00 | 0.00 | 43 | 1010.6 |
| 20260507230311 | 12 | 243 | 8.0 | 20.9 | 0.00 | 0.00 | 0.00 | 43 | 1010.7 |
| 20260507230128 | 12 | 273 | 9.7 | 20.9 | 0.00 | 0.00 | 0.00 | 43 | 1010.7 |
| 20260507225948 | 12 | 268 | 14.5 | 20.9 | 0.00 | 0.00 | 0.00 | 42 | 1010.6 |
| 20260507225805 | 12 | 295 | 14.5 | 20.9 | 0.00 | 0.00 | 0.00 | 42 | 1010.7 |
| 20260507225647 | 12 | 250 | 9.7 | 17.7 | 0.00 | 0.00 | 0.00 | 43 | 1010.7 |
| 20260507225503 | 12 | 276 | 6.4 | 17.7 | 0.00 | 0.00 | 0.00 | 44 | 1010.7 |
| 20260507225340 | 12 | 304 | 8.0 | 24.1 | 0.00 | 0.00 | 0.00 | 43 | 1010.7 |
| 20260507225218 | 12 | 259 | 9.7 | 24.1 | 0.00 | 0.00 | 0.00 | 43 | 1010.7 |
| 20260507225059 | 12 | 266 | 8.0 | 25.7 | 0.00 | 0.00 | 0.00 | 43 | 1010.7 |
| 20260507224936 | 12 | 268 | 11.3 | 25.7 | 0.00 | 0.00 | 0.00 | 43 | 1010.7 |
| 20260507224814 | 12 | 277 | 12.9 | 25.7 | 0.00 | 0.00 | 0.00 | 42 | 1010.7 |
| 20260507224635 | 12 | 286 | 14.5 | 25.7 | 0.00 | 0.00 | 0.00 | 42 | 1010.7 |
| 20260507224459 | 12 | 288 | 12.9 | 25.7 | 0.00 | 0.00 | 0.00 | 42 | 1010.7 |
| 20260507224338 | 12 | 257 | 16.1 | 25.7 | 0.00 | 0.00 | 0.00 | 42 | 1010.7 |
| 20260507224217 | 12 | 322 | 11.3 | 20.9 | 0.00 | 0.00 | 0.00 | 42 | 1010.8 |
| 20260507224037 | 12 | 294 | 11.3 | 20.9 | 0.00 | 0.00 | 0.00 | 42 | 1010.7 |
| 20260507223857 | 12 | 325 | 11.3 | 20.9 | 0.00 | 0.00 | 0.00 | 42 | 1010.7 |
| 20260507223726 | 12 | 273 | 6.4 | 25.7 | 0.00 | 0.00 | 0.00 | 43 | 1010.7 |
| 20260507223605 | 12 | 326 | 6.4 | 25.7 | 0.00 | 0.00 | 0.00 | 43 | 1010.7 |
| 20260507223448 | 12 | 281 | 8.0 | 25.7 | 0.00 | 0.00 | 0.00 | 43 | 1010.7 |
| 20260507223316 | 11 | 308 | 9.7 | 25.7 | 0.00 | 0.00 | 0.00 | 43 | 1010.7 |
| 20260507223158 | 11 | 279 | 11.3 | 25.7 | 0.00 | 0.00 | 0.00 | 42 | 1010.7 |
| 20260507223037 | 11 | 325 | 16.1 | 25.7 | 0.00 | 0.00 | 0.00 | 42 | 1010.7 |
| 20260507222918 | 12 | 289 | 12.9 | 25.7 | 0.00 | 0.00 | 0.00 | 42 | 1010.7 |
| 20260507222725 | 12 | 305 | 14.5 | 25.7 | 0.00 | 0.00 | 0.00 | 41 | 1010.7 |
| 20260507222604 | 12 | 302 | 16.1 | 25.7 | 0.00 | 0.00 | 0.00 | 41 | 1010.8 |
| 20260507222442 | 12 | 242 | 16.1 | 24.1 | 0.00 | 0.00 | 0.00 | 41 | 1010.7 |
| 20260507222258 | 12 | 275 | 9.7 | 24.1 | 0.00 | 0.00 | 0.00 | 41 | 1010.7 |
| 20260507222125 | 12 | 231 | 9.7 | 24.1 | 0.00 | 0.00 | 0.00 | 41 | 1010.7 |
| 20260507221922 | 12 | 232 | 11.3 | 20.9 | 0.00 | 0.00 | 0.00 | 42 | 1010.8 |
| 20260507221801 | 12 | 279 | 11.3 | 20.9 | 0.00 | 0.00 | 0.00 | 42 | 1010.7 |
| 20260507221639 | 12 | 306 | 9.7 | 20.9 | 0.00 | 0.00 | 0.00 | 42 | 1010.7 |
| 20260507221506 | 12 | 291 | 14.5 | 20.9 | 0.00 | 0.00 | 0.00 | 42 | 1010.7 |
| 20260507221344 | 12 | 280 | 12.9 | 20.9 | 0.00 | 0.00 | 0.00 | 43 | 1010.7 |
| 20260507221222 | 12 | 284 | 8.0 | 17.7 | 0.00 | 0.00 | 0.00 | 43 | 1010.8 |
| 20260507221101 | 12 | 275 | 8.0 | 29.0 | 0.00 | 0.00 | 0.00 | 43 | 1010.7 |
| 20260507220904 | 11 | 269 | 11.3 | 29.0 | 0.00 | 0.00 | 0.00 | 44 | 1010.8 |
| 20260507220721 | 11 | 311 | 9.7 | 29.0 | 0.00 | 0.00 | 0.00 | 43 | 1010.8 |
| 20260507220603 | 11 | 256 | 9.7 | 29.0 | 0.00 | 0.00 | 0.00 | 43 | 1010.9 |
| 20260507220404 | 11 | 306 | 16.1 | 29.0 | 0.00 | 0.00 | 0.00 | 42 | 1010.8 |
| 20260507220241 | 11 | 344 | 11.3 | 29.0 | 0.00 | 0.00 | 0.00 | 43 | 1010.8 |
| 20260507220124 | 11 | 309 | 14.5 | 29.0 | 0.00 | 0.00 | 0.00 | 42 | 1010.9 |
| 20260507220008 | 11 | 229 | 16.1 | 29.0 | 0.00 | 0.00 | 0.00 | 42 | 1010.9 |
| 20260507215849 | 11 | 247 | 17.7 | 29.0 | 0.00 | 0.00 | 0.00 | 43 | 1010.9 |
| 20260507215711 | 11 | 298 | 14.5 | 29.0 | 0.00 | 0.00 | 0.00 | 43 | 1010.9 |
| 20260507215554 | 11 | 274 | 6.4 | 20.9 | 0.00 | 0.00 | 0.00 | 44 | 1010.9 |
| 20260507215437 | 11 | 299 | 4.8 | 20.9 | 0.00 | 0.00 | 0.00 | 44 | 1010.8 |
| 20260507215302 | 11 | 308 | 8.0 | 25.7 | 0.00 | 0.00 | 0.00 | 44 | 1010.9 |
| 20260507215145 | 11 | 326 | 11.3 | 25.7 | 0.00 | 0.00 | 0.00 | 43 | 1010.9 |
| 20260507215027 | 11 | 312 | 14.5 | 25.7 | 0.00 | 0.00 | 0.00 | 42 | 1010.9 |
| 20260507214910 | 11 | 306 | 14.5 | 25.7 | 0.00 | 0.00 | 0.00 | 43 | 1010.9 |
| 20260507214752 | 11 | 321 | 14.5 | 25.7 | 0.00 | 0.00 | 0.00 | 42 | 1010.9 |
| 20260507214630 | 11 | 291 | 16.1 | 27.4 | 0.00 | 0.00 | 0.00 | 42 | 1010.9 |
| 20260507214458 | 11 | 279 | 11.3 | 27.4 | 0.00 | 0.00 | 0.00 | 43 | 1010.9 |
| 20260507214340 | 11 | 285 | 16.1 | 27.4 | 0.00 | 0.00 | 0.00 | 42 | 1010.9 |